GFSFLT1_500_spd_000.txt.gz
Wind_Speed
14 11 15 13 10 12 21 21 22 22 21 21 19 19 20 20 20 18 19 19 21 25 26 26 25 22 22 23 23 23 24 26 26
11 13 17 10 10 12 15 19 21 23 19 16 18 19 19 19 20 19 19 21 22 23 26 27 25 23 21 23 25 26 26 27 28
21 19 18 9 10 12 13 17 16 14 13 16 19 21 23 24 25 25 26 28 26 25 26 25 25 25 25 26 27 29 28 27 28
15 21 16 8 12 8 9 15 15 11 10 12 16 20 24 28 29 32 31 31 30 30 28 26 25 27 27 27 28 29 26 25 26
21 22 18 15 13 14 7 5 4 6 9 13 15 17 20 25 25 35 30 31 33 34 33 31 28 29 29 30 29 29 27 26 28
23 22 17 13 11 5 7 8 6 11 12 13 16 21 25 28 30 32 33 32 34 34 36 33 34 30 31 32 31 31 28 27 31
25 22 18 16 14 9 5 9 10 13 16 19 23 28 30 31 33 37 31 38 30 37 39 38 38 37 36 36 35 34 30 30 31
22 23 23 22 17 14 14 13 13 16 19 22 24 24 28 29 33 37 45 35 38 33 41 41 39 38 40 39 40 39 33 31 34
26 20 18 12 13 14 18 22 22 20 24 27 29 27 30 34 40 44 47 44 28 27 31 39 39 41 42 42 43 43 35 33 38
25 21 14 13 15 19 26 29 29 29 31 34 38 35 31 36 41 45 34 50 48 26 32 37 41 40 42 47 46 45 40 35 40
20 15 18 21 22 25 31 32 34 33 36 38 39 38 37 41 43 47 36 41 46 33 33 35 38 40 42 48 53 51 41 36 43
20 20 22 27 32 36 35 35 38 38 40 43 44 40 42 42 43 43 42 37 45 39 34 33 36 29 37 46 48 51 50 43 45
27 30 32 38 40 45 37 38 44 45 47 48 51 52 48 47 44 42 39 40 42 46 43 41 41 37 41 39 41 39 41 43 39
26 31 38 40 40 42 44 47 49 51 50 54 53 52 44 41 41 42 43 40 45 46 44 43 42 39 30 49 34 37 32 37 29
35 34 38 42 46 50 51 52 54 50 54 53 50 39 42 47 46 44 42 47 46 47 43 39 47 33 39 39 38 42 44 32 31
33 37 39 44 48 54 59 53 45 48 46 53 55 44 47 52 49 40 36 37 38 45 42 33 35 35 39 46 44 43 40 34 35
30 33 42 50 56 60 49 46 48 47 48 54 52 47 46 45 42 41 34 37 38 37 37 32 32 40 53 55 49 33 33 33 34
39 42 46 49 56 54 50 52 47 50 54 54 49 49 42 43 34 35 38 37 41 36 30 40 38 40 42 44 41 45 39 40 41
46 50 48 37 36 50 54 47 40 42 39 38 40 42 44 39 39 39 42 44 41 43 50 50 48 40 42 43 43 39 41 40 39
44 37 37 40 36 36 36 39 44 45 43 47 47 43 44 46 44 45 45 49 46 46 47 47 45 39 45 51 46 41 36 36 37

GFSFLT1_500_spd_003.txt.gz
Wind_Speed
24 18 13 13 15 17 13 16 19 25 26 23 21 24 21 20 21 18 18 18 19 22 24 26 24 24 24 23 23 22 20 21 24
19 11 11 17 19 21 14 15 19 26 30 26 26 21 17 18 20 21 22 21 23 25 27 26 27 25 25 25 25 25 23 24 27
15 13 16 21 22 17 13 12 15 20 17 15 13 11 14 17 19 21 21 24 26 28 27 25 25 26 28 28 28 27 25 28 28
21 19 19 24 21 13 13 14 10 9 10 8 5 8 10 12 17 21 20 23 34 24 27 31 30 26 26 28 28 29 29 29 28
24 20 21 23 19 19 17 14 5 6 4 5 8 12 13 17 21 22 32 34 30 37 32 24 33 31 30 29 29 31 32 31 30
18 20 23 21 16 17 13 9 8 4 5 7 13 13 18 19 21 26 31 38 38 42 36 38 31 35 34 35 35 35 34 34 32
24 23 27 19 20 19 20 12 11 7 7 11 13 19 20 22 23 28 33 38 47 46 50 40 30 29 34 38 36 36 35 37 35
26 30 29 22 26 25 21 18 12 11 9 12 18 20 22 24 29 33 35 41 51 54 50 49 27 21 37 41 35 35 40 37 35
22 26 27 22 26 23 21 17 15 13 15 19 19 22 26 28 29 34 38 41 49 40 49 47 35 26 24 35 35 38 37 35 35
23 24 21 21 21 21 18 21 23 25 23 23 25 28 29 31 35 39 44 44 45 40 42 44 38 33 27 30 41 39 37 41 43
28 28 25 22 23 23 27 31 30 24 26 29 33 35 37 39 43 48 52 52 47 43 37 36 36 38 32 35 38 24 30 35 35
30 28 26 27 32 37 37 31 31 29 34 35 37 40 41 44 43 47 49 51 46 42 41 39 36 34 36 40 37 31 31 37 31
33 30 35 34 38 39 36 34 36 37 36 40 44 47 48 49 48 54 43 45 45 47 45 42 34 33 30 28 25 27 22 23 27
35 33 39 37 38 37 37 40 41 43 44 50 53 53 51 57 56 45 50 47 48 48 45 34 35 32 30 30 33 24 26 27 30
38 36 33 32 35 36 40 42 44 49 53 57 59 62 52 41 54 51 44 47 46 46 39 36 36 33 30 29 27 34 36 40 36
40 38 45 32 29 35 40 43 47 53 58 59 55 43 40 42 51 52 51 47 47 38 35 29 35 33 35 26 34 33 45 43 33
41 44 46 38 41 38 38 40 42 46 50 50 54 47 45 51 53 51 47 44 44 36 34 34 36 34 34 39 36 35 36 39 37
39 39 43 39 37 39 39 42 43 43 45 48 48 51 50 48 41 36 37 34 34 37 39 42 40 38 41 45 43 37 35 41 45
42 43 39 40 44 44 45 49 47 42 42 45 47 46 43 43 44 42 40 38 40 42 44 43 43 44 43 40 39 39 41 43 37
40 45 44 44 45 47 52 49 47 45 38 37 39 40 42 44 45 46 47 43 46 48 46 43 42 41 39 42 44 43 41 33 33

GFSFLT1_500_spd_006.txt.gz
Wind_Speed
22 25 21 15 13 12 10 12 14 18 18 21 22 21 22 22 25 19 19 20 20 21 21 22 25 27 27 28 24 22 22 24 26
26 27 23 12 14 12 14 17 14 16 19 21 20 21 25 24 20 17 18 17 18 19 20 23 25 27 28 27 28 25 25 27 29
24 24 16 15 16 18 17 11 14 16 16 18 19 19 16 14 11 12 15 18 20 20 25 22 29 30 29 31 32 30 27 27 28
25 24 19 19 20 24 22 18 12 14 15 15 14 12 9 9 13 16 17 16 16 25 32 25 37 30 28 29 27 30 32 30 30
27 29 28 24 22 26 27 22 14 14 14 12 11 10 9 12 13 12 14 19 21 28 30 38 35 26 41 40 32 37 33 32 35
22 21 28 27 26 21 21 19 15 13 12 11 11 9 11 13 14 18 22 26 25 30 33 39 40 44 36 38 33 34 35 33 33
24 21 22 24 24 25 23 20 19 17 16 14 15 15 16 18 20 20 23 25 30 36 39 43 40 33 37 16 26 28 33 37 35
27 24 28 24 27 23 25 21 21 20 20 21 21 22 21 19 22 21 23 27 31 38 41 45 37 37 31 20 26 29 35 37 34
28 27 28 27 28 31 27 27 25 27 26 25 26 21 20 23 25 28 33 33 37 39 44 44 34 30 34 35 30 26 32 33 37
27 27 31 29 29 35 34 30 28 29 28 25 23 23 22 25 30 34 36 36 41 42 46 44 42 39 39 40 36 29 35 32 33
30 32 30 33 37 33 30 32 34 33 26 23 28 27 29 32 36 38 40 41 43 47 48 48 44 42 42 42 38 34 34 29 27
32 34 32 37 34 31 33 35 35 34 29 28 33 33 34 35 37 43 46 48 50 55 61 45 47 44 45 45 39 29 29 26 32
35 32 31 39 37 35 35 37 38 36 34 32 32 34 37 40 45 50 52 56 49 56 53 50 49 46 41 41 37 32 31 33 33
37 35 31 31 34 40 39 40 41 43 37 38 37 37 40 44 50 55 56 47 42 51 48 45 48 45 38 36 35 32 37 30 29
39 37 38 36 34 33 44 48 48 43 44 39 40 42 44 49 52 57 55 56 48 54 52 50 42 41 38 36 35 34 37 33 32
39 39 38 37 38 37 41 49 46 42 44 43 41 40 44 49 52 60 53 52 51 48 44 38 39 39 36 37 36 41 38 35 36
38 41 41 40 39 41 42 47 53 38 45 42 42 40 44 46 52 47 54 55 50 46 44 37 36 34 38 42 44 40 40 45 43
44 46 45 42 42 43 47 50 47 43 45 49 47 49 51 48 47 52 45 42 46 44 41 39 39 43 43 44 45 41 40 39 41
40 46 45 42 40 44 45 46 45 47 50 52 52 52 47 49 46 42 44 46 44 44 43 41 42 43 43 44 43 40 40 41 44
42 50 48 36 35 40 46 48 47 49 46 41 40 42 43 46 47 45 46 44 42 43 43 45 45 44 46 45 40 40 42 41 40

GFSFLT1_500_spd_009.txt.gz
Wind_Speed
20 33 26 23 17 18 16 14 13 13 15 20 21 22 22 21 21 21 24 21 20 20 19 18 20 25 24 29 32 30 25 26 26
25 32 24 23 14 14 10 11 14 15 17 17 19 20 21 20 21 23 19 18 16 15 17 19 26 29 29 32 35 32 38 29 27
23 25 28 26 21 16 14 14 15 13 15 19 19 20 21 22 20 18 15 14 17 16 11 22 18 27 30 34 29 30 35 34 29
24 24 26 24 19 15 16 19 18 16 16 18 19 18 19 18 17 13 14 13 10 16 13 20 22 30 32 30 35 36 36 36 33
21 22 28 27 26 24 20 20 20 24 19 17 17 19 21 18 14 13 12 11 17 19 17 19 25 28 28 24 28 22 22 25 37
26 21 23 29 31 32 27 22 19 21 19 15 16 17 15 16 14 15 17 21 21 17 23 21 27 30 27 27 26 25 25 29 36
33 31 34 33 30 32 32 25 23 23 18 18 16 17 17 17 17 18 20 20 17 25 22 28 32 32 30 29 32 30 32 36 36
31 29 33 27 30 32 29 26 27 24 20 21 21 20 19 20 20 16 18 21 23 27 29 33 35 37 35 32 34 36 38 40 37
40 28 31 31 30 31 29 29 26 24 24 24 25 20 20 21 15 16 19 22 25 30 35 39 42 45 44 46 42 41 41 37 40
46 34 29 35 33 29 32 32 32 32 30 28 25 20 18 23 23 25 24 25 29 36 41 45 50 53 51 50 48 38 42 42 40
40 36 36 37 33 30 36 32 32 34 35 31 23 23 21 22 25 26 29 34 37 42 46 49 50 55 50 49 45 41 44 43 40
42 45 27 39 33 34 35 36 34 36 36 32 28 29 25 24 27 31 35 37 41 45 49 54 47 46 51 52 51 50 45 42 41
53 37 41 40 37 36 38 36 36 39 39 35 31 30 28 29 31 33 37 39 41 48 56 53 50 48 51 55 53 48 41 38 36
44 39 44 44 38 37 39 39 37 37 36 35 35 36 33 33 36 39 40 42 46 47 55 56 55 55 53 52 50 45 41 39 39
34 42 46 46 39 37 40 43 40 39 40 41 42 42 40 40 44 44 44 46 46 50 53 58 60 54 53 47 44 44 39 39 37
36 41 42 45 42 35 32 32 32 41 45 46 45 46 44 46 45 46 47 51 53 55 57 56 55 50 46 45 44 38 38 42 43
40 45 47 46 42 40 39 36 37 35 37 45 49 48 49 46 46 50 53 53 56 53 51 55 49 45 44 41 41 41 44 45 46
39 45 48 42 42 42 42 40 42 43 43 43 46 49 49 50 56 54 55 55 56 51 53 49 48 48 48 49 49 46 44 45 43
37 36 39 42 42 43 46 47 45 44 45 44 46 48 48 53 57 59 58 60 56 49 49 48 47 46 46 46 46 44 47 44 42
36 40 45 46 47 46 46 47 48 46 48 49 47 49 50 56 59 58 58 57 53 53 50 46 46 44 44 46 45 44 41 41 42

GFSFLT1_500_spd_012.txt.gz
Wind_Speed
22 25 27 23 22 17 13 16 14 18 16 19 22 23 22 22 21 20 20 19 20 14 9 11 13 12 14 19 24 25 24 26 27
23 21 29 29 21 18 15 10 10 13 14 17 18 19 21 21 20 21 20 19 14 9 6 8 11 14 18 22 16 29 27 30 32
25 26 31 37 27 23 18 14 11 12 14 14 15 16 17 20 20 20 20 13 7 5 3 8 13 16 18 22 20 19 26 27 29
25 31 36 35 26 26 18 17 14 13 14 17 18 17 18 20 22 19 13 8 5 8 13 11 13 16 19 18 22 25 28 29 29
32 31 26 32 30 24 23 19 16 13 14 19 19 17 16 16 17 14 9 7 8 12 9 9 13 17 19 22 22 25 26 30 34
23 29 35 31 29 28 26 24 21 20 15 19 17 14 10 7 7 6 6 9 12 12 11 11 15 20 28 34 30 27 34 37 40
28 40 37 27 28 30 22 26 23 23 19 22 18 12 8 6 6 5 7 10 10 10 9 15 20 26 31 37 41 39 39 38 40
25 27 37 37 37 38 33 32 27 26 26 27 21 16 10 9 8 6 9 5 6 14 15 22 26 30 37 39 42 43 40 39 38
36 32 37 50 41 39 36 36 29 27 28 27 24 20 13 13 10 10 13 15 16 16 22 26 31 34 42 45 45 36 41 42 44
35 37 36 47 45 38 36 37 35 32 28 28 26 24 15 15 10 9 13 13 16 21 24 27 33 39 47 52 49 46 45 44 46
46 46 39 40 48 47 41 38 36 34 33 29 27 28 22 20 16 13 13 18 21 25 26 31 35 41 46 53 57 50 50 48 49
49 50 38 49 52 53 47 39 35 35 36 29 29 28 25 21 24 26 23 23 27 30 32 35 39 43 48 53 52 55 55 53 51
60 52 47 49 51 46 37 38 38 37 38 33 33 30 26 26 27 26 26 30 31 34 36 40 42 45 49 54 55 56 54 52 44
67 57 48 57 41 36 42 35 37 34 34 35 31 31 27 26 27 30 31 33 34 37 42 44 47 50 52 52 54 53 51 42 41
41 48 63 58 47 51 36 39 39 37 36 35 32 32 31 30 32 34 34 34 38 41 46 48 51 55 56 59 54 52 46 45 41
42 44 52 64 65 54 46 44 43 40 38 36 35 36 35 35 36 38 42 38 42 42 49 57 56 57 58 61 54 48 50 48 47
48 49 47 47 48 48 48 46 43 37 37 37 37 36 38 42 41 39 42 45 48 53 56 57 57 58 58 56 50 49 48 48 48
54 47 47 46 45 45 45 45 42 38 36 34 34 35 40 44 46 45 46 45 50 53 57 59 60 60 56 53 53 50 49 46 46
46 45 46 48 42 39 40 41 44 41 39 41 43 43 45 47 45 46 49 50 54 58 60 60 58 53 51 47 45 47 46 45 43
38 33 39 38 36 40 42 44 47 47 45 47 48 51 47 46 49 48 49 52 55 57 60 58 51 46 44 45 46 45 47 40 37

GFSFLT1_500_spd_015.txt.gz
Wind_Speed
32 34 25 10 11 12 13 12 12 13 14 16 18 18 21 19 20 18 19 16 12 7 5 5 6 8 8 9 13 15 20 24 27
31 26 21 16 8 11 16 15 12 13 11 11 17 18 19 20 22 20 20 15 9 3 6 5 5 9 11 15 15 16 18 20 23
33 27 22 14 10 19 21 19 14 15 9 10 9 11 14 16 17 19 16 10 5 2 3 7 11 9 10 11 14 17 19 19 22
38 39 34 25 16 27 18 19 21 20 12 11 11 12 10 11 13 13 9 6 5 7 6 5 9 9 11 10 14 19 24 21 27
30 36 31 25 24 29 20 22 20 17 12 11 13 12 10 8 6 3 6 7 8 5 5 5 6 10 13 15 17 26 30 29 30
31 24 26 29 32 32 29 22 20 22 18 14 15 11 9 5 6 9 10 10 7 6 8 10 11 10 9 16 23 31 32 33 28
31 22 33 37 40 36 33 24 23 25 20 19 17 12 10 9 9 12 13 10 7 9 10 11 11 13 16 23 28 29 34 39 37
28 36 34 35 38 38 39 31 31 21 21 23 22 20 15 14 11 11 13 10 8 8 7 10 15 18 21 24 29 34 34 38 38
40 31 43 46 39 43 43 37 35 37 32 24 23 23 19 16 13 12 13 14 13 16 18 20 21 21 21 25 30 36 36 40 40
38 36 33 28 46 46 47 42 40 36 33 27 24 25 22 18 16 16 15 15 12 12 13 15 19 23 24 28 31 38 42 42 42
46 47 48 43 37 43 47 43 44 40 36 31 28 30 27 23 17 20 19 15 13 14 15 17 21 25 28 31 36 39 44 48 52
53 63 50 49 50 39 39 39 39 40 42 36 35 34 32 27 21 20 25 21 22 23 20 22 24 27 32 36 40 45 48 52 56
59 53 56 58 46 36 44 46 38 40 42 38 39 33 33 31 26 23 22 26 28 24 27 34 24 30 35 38 42 50 53 54 54
70 71 62 53 51 52 53 36 44 45 41 42 34 35 37 35 32 27 24 24 24 29 30 26 34 37 39 42 48 52 52 55 51
47 76 74 70 57 51 49 52 49 37 36 37 38 37 41 41 34 30 23 22 31 27 32 35 37 42 44 49 51 54 57 55 46
39 46 52 74 72 67 59 51 51 53 41 40 37 37 40 37 33 30 27 30 31 30 36 39 42 48 46 48 53 55 59 51 49
45 51 51 52 50 74 67 61 51 51 43 40 42 39 39 36 36 33 34 33 34 37 39 44 45 45 50 55 56 56 55 50 47
48 51 55 57 54 54 53 48 59 56 50 44 44 40 43 42 42 37 37 37 38 42 44 46 47 51 54 57 56 52 49 46 44
47 50 53 60 58 55 58 46 48 56 60 55 49 46 42 39 38 37 38 40 43 44 48 46 51 52 52 53 52 50 47 44 42
48 60 40 54 58 53 59 49 48 46 44 48 48 45 41 39 40 42 44 45 45 49 49 52 53 51 52 54 53 49 44 42 43

GFSFLT1_500_spd_018.txt.gz
Wind_Speed
14 14 23 13 13 15 13 9 13 13 15 15 16 16 15 17 19 18 18 15 15 15 16 12 7 3 3 6 8 9 11 13 16
14 14 11 21 21 25 10 1 5 10 12 11 11 15 16 17 19 21 21 17 17 17 14 8 4 6 8 9 9 8 12 14 17
19 20 17 18 11 10 8 5 5 11 10 10 9 9 11 14 20 21 19 17 18 17 12 8 5 9 8 7 7 9 12 15 17
22 23 19 14 16 21 22 16 5 12 14 14 11 12 10 10 15 17 15 18 18 16 12 7 7 8 9 10 9 10 11 15 20
23 21 21 20 17 22 23 13 11 12 14 14 11 12 10 9 12 14 16 19 19 17 12 9 8 10 10 12 12 12 14 15 19
21 25 27 30 25 20 19 14 15 13 15 15 14 14 11 9 10 13 18 20 18 18 15 10 10 12 13 11 13 17 19 19 24
22 36 37 32 31 24 22 22 21 14 18 19 19 18 14 9 12 15 19 21 19 19 16 13 13 15 14 16 18 19 20 21 26
30 28 38 45 42 25 30 30 26 18 20 19 19 19 20 15 16 19 23 21 21 21 16 15 17 18 16 17 14 18 20 23 26
38 26 31 39 37 26 35 32 28 23 25 20 23 22 21 23 20 19 22 22 23 21 18 17 17 17 17 16 15 19 22 25 27
48 33 30 30 31 30 32 36 31 31 30 31 32 31 24 23 24 20 23 25 26 23 26 23 17 16 16 15 16 19 24 27 30
47 44 36 38 37 35 37 34 35 36 38 30 25 27 27 23 25 25 22 26 27 27 25 22 22 21 22 21 22 19 26 30 34
58 52 57 52 47 41 37 42 47 41 44 33 33 31 31 27 28 29 28 25 28 28 28 26 25 27 30 33 23 22 28 33 37
59 64 63 57 59 56 47 38 44 51 47 39 40 32 33 33 33 36 33 28 31 33 32 34 33 34 30 28 31 30 34 36 39
52 61 63 62 57 62 58 49 54 45 44 50 41 34 36 35 36 39 38 33 33 33 39 38 40 42 40 21 29 31 36 37 43
42 57 53 66 67 62 58 60 67 60 55 42 44 37 39 43 39 44 43 39 35 36 38 38 43 48 30 27 32 35 38 40 46
37 38 43 57 73 72 68 66 58 60 55 52 54 45 43 40 41 46 45 44 43 39 38 42 46 37 31 34 36 38 41 43 47
46 48 47 46 51 56 59 62 65 62 56 51 48 47 44 45 42 44 47 48 52 42 45 46 42 28 35 37 40 43 46 47 48
49 47 51 52 50 48 49 48 51 58 66 60 59 48 48 47 46 48 47 50 51 50 47 47 28 36 38 41 44 47 49 51 53
54 55 50 48 51 53 51 56 51 48 53 60 64 64 71 42 44 50 51 55 53 43 32 35 36 40 44 46 50 51 52 56 55
51 48 51 51 55 63 54 46 51 58 54 56 62 68 71 63 52 60 47 55 38 21 33 38 42 46 49 52 53 57 60 60 55

GFSFLT1_500_spd_021.txt.gz
Wind_Speed
17 13 8 15 12 11 19 20 17 13 10 11 13 15 18 17 15 14 16 16 16 16 18 19 16 9 7 8 11 11 10 11 13
19 14 7 8 6 19 28 24 16 12 5 6 9 13 18 18 18 17 18 18 18 19 20 20 15 11 9 8 9 10 10 11 11
18 17 12 8 3 5 4 8 13 14 7 7 9 10 12 16 18 19 20 20 21 23 22 19 16 12 9 10 11 9 10 12 12
20 15 13 11 9 7 14 13 12 14 9 7 8 10 11 11 15 16 18 18 24 24 22 19 17 14 10 11 12 12 12 14 13
28 24 23 17 17 18 19 14 15 16 14 11 12 13 13 12 14 14 16 21 24 23 21 21 18 15 12 12 12 12 15 14 12
35 31 30 28 27 27 22 20 19 19 16 16 17 14 12 13 12 14 14 20 24 24 22 23 19 18 15 14 13 14 16 13 10
35 38 32 37 32 30 32 26 20 23 19 20 20 18 14 12 11 13 14 17 22 24 24 23 21 20 18 16 16 17 15 15 15
46 44 41 38 37 35 35 30 29 26 21 20 22 22 17 12 14 15 18 17 19 25 26 25 24 24 22 21 21 21 20 20 17
50 50 48 43 43 32 37 32 30 29 27 23 23 23 18 19 19 21 19 20 21 26 27 27 28 27 28 27 26 21 19 21 19
47 50 44 43 44 37 31 26 19 33 29 28 26 23 22 22 24 27 22 22 25 26 28 30 31 29 29 27 25 20 22 21 29
49 52 50 46 43 43 30 23 30 29 33 31 29 30 29 31 28 28 25 24 26 27 29 32 33 32 34 30 25 24 24 27 26
46 51 55 51 45 46 46 45 30 29 33 35 37 35 36 28 27 27 29 28 26 27 27 31 37 37 35 33 31 31 30 31 27
40 46 57 62 59 55 55 54 47 38 36 37 39 40 38 36 33 30 32 32 33 31 32 32 37 41 39 39 36 39 41 26 22
36 42 52 53 52 56 55 48 45 46 40 42 38 41 40 42 40 33 38 39 40 40 38 38 40 43 42 43 43 46 50 31 22
34 37 38 46 55 54 49 47 46 48 42 37 40 43 40 46 51 38 42 41 40 43 47 46 44 40 47 47 47 51 50 34 27
36 34 32 33 39 57 54 55 53 51 50 45 49 51 53 49 57 51 45 50 48 46 52 55 50 49 46 44 50 54 43 33 33
41 39 39 40 40 43 50 59 62 61 62 55 51 51 52 51 57 54 55 53 49 55 55 59 58 54 52 49 55 56 37 35 37
48 47 47 46 48 49 48 49 52 54 61 61 64 66 57 57 56 52 58 55 56 52 58 61 64 60 55 48 53 48 31 36 36
50 52 51 52 52 55 55 56 54 54 54 55 57 56 67 60 57 57 62 61 61 58 61 65 65 70 47 52 36 32 37 38 37
56 57 54 58 54 52 57 59 53 56 58 59 64 64 61 61 59 61 63 69 69 69 73 72 38 59 17 25 29 30 37 42 41

GFSFLT1_500_spd_024.txt.gz
Wind_Speed
24 23 21 19 10 5 7 8 10 12 11 14 18 19 19 21 20 18 17 15 15 15 15 13 13 14 14 9 10 9 9 10 11
28 22 18 15 16 10 10 13 8 10 11 13 15 17 21 21 23 21 19 19 17 18 17 16 13 16 16 12 10 8 8 10 11
30 27 23 19 15 13 10 18 14 11 9 12 14 14 14 18 21 21 22 23 20 20 21 20 14 16 18 15 9 8 8 11 13
31 29 29 26 22 15 17 20 17 14 12 13 14 12 13 14 16 19 22 23 22 24 25 22 17 17 19 17 11 9 8 10 14
31 31 28 26 25 22 22 20 18 16 16 14 14 15 16 14 15 14 17 17 21 27 26 24 21 20 21 18 14 12 10 11 17
32 31 29 28 28 29 27 26 22 20 20 13 15 17 17 17 13 13 15 16 18 24 25 25 24 23 21 20 16 16 13 15 13
38 36 34 34 30 31 31 28 25 23 23 21 20 18 20 18 14 12 15 16 16 17 23 26 25 25 24 23 20 18 16 17 17
44 43 40 41 40 34 36 33 33 27 27 26 24 22 22 16 16 14 12 13 17 17 15 21 25 28 26 25 22 21 21 21 19
34 43 43 41 39 36 38 39 31 24 30 31 27 24 20 22 22 20 18 17 20 21 19 20 23 27 27 26 24 24 25 25 22
34 32 35 43 44 41 37 37 32 32 25 33 33 27 27 23 24 24 24 23 26 24 22 24 23 26 28 28 27 28 29 30 24
40 36 34 35 36 39 38 37 40 36 33 30 27 27 34 29 27 23 25 27 29 28 24 23 25 29 30 31 33 34 34 34 29
41 41 36 37 41 41 42 40 38 37 36 33 31 19 23 33 36 32 31 30 28 30 29 26 23 27 34 36 38 39 39 39 33
43 39 42 41 43 43 46 45 44 42 36 32 27 26 29 37 37 37 33 29 28 30 33 35 31 29 29 36 41 44 46 40 37
41 40 42 41 45 48 46 45 46 46 46 45 33 34 34 38 40 39 47 44 36 35 37 40 39 38 40 41 36 43 44 44 42
39 37 38 41 41 47 51 51 50 49 45 40 42 44 37 38 40 43 47 46 42 48 41 44 44 47 47 49 49 44 44 49 47
38 39 42 42 40 40 46 49 48 42 45 46 45 46 45 36 42 50 44 40 56 50 56 40 44 48 51 54 54 53 55 51 52
42 41 40 42 42 43 40 43 51 54 50 51 51 52 51 49 48 48 42 48 59 61 54 57 59 57 50 51 55 61 64 63 61
47 49 46 41 42 43 44 45 45 46 50 58 59 54 54 56 56 58 59 62 65 48 52 64 57 56 56 58 67 68 73 59 69
46 46 48 47 43 45 48 47 48 49 51 50 51 57 63 66 70 73 69 60 61 61 63 67 58 69 70 53 68 52 72 75 45
42 43 45 45 42 44 46 48 50 51 51 51 54 52 59 62 63 65 64 66 69 68 67 68 68 70 74 67 69 60 36 35 14

GFSFLT1_500_spd_027.txt.gz
Wind_Speed
27 28 26 23 20 18 18 16 14 13 11 11 14 17 18 20 20 19 19 20 20 20 18 16 10 10 11 11 8 6 4 5 6
29 28 28 29 24 21 21 18 12 14 14 14 14 19 24 25 24 23 22 22 22 21 20 18 14 13 12 11 9 8 4 4 6
28 25 25 27 24 22 21 20 17 19 18 14 15 15 19 22 24 25 24 24 23 23 23 21 18 16 15 12 11 11 6 5 6
31 27 25 25 26 25 20 20 23 19 19 17 14 13 16 17 17 20 22 22 25 26 27 25 22 19 19 15 14 11 7 6 8
36 35 34 30 29 26 26 27 25 22 20 17 16 16 18 16 17 15 15 18 22 25 29 29 27 22 22 20 17 13 11 9 9
35 36 36 36 34 31 27 26 28 26 20 17 18 19 18 16 16 13 13 14 16 18 23 25 28 24 23 22 20 17 16 12 12
41 42 39 41 38 35 32 31 31 28 25 23 22 22 21 18 14 12 15 17 14 13 14 17 23 26 25 25 25 22 19 16 15
44 43 43 43 40 37 35 33 31 31 27 27 28 23 22 19 18 19 16 12 12 13 14 16 18 21 26 27 28 24 21 19 19
44 49 46 47 45 43 41 37 32 31 32 32 27 26 23 23 22 23 20 18 16 18 16 16 19 18 21 25 26 25 24 24 23
34 42 46 49 49 46 46 45 38 36 29 30 27 25 26 28 26 24 24 24 23 24 21 25 21 21 21 21 25 27 27 28 27
35 33 35 35 39 46 43 41 39 35 36 32 26 28 32 34 30 29 27 29 29 28 27 25 28 23 22 23 23 27 30 32 33
40 39 35 34 33 33 41 40 35 39 38 35 36 32 30 29 31 34 33 30 30 31 29 28 28 28 24 23 22 26 32 36 36
43 41 40 39 36 33 33 34 34 34 38 41 33 31 25 29 32 35 38 36 35 36 38 32 32 30 32 30 26 28 35 38 39
43 43 44 40 36 33 34 34 35 35 37 35 32 35 33 30 32 34 36 45 49 45 45 43 38 37 34 36 38 38 38 39 43
44 44 43 43 37 36 35 35 36 37 38 40 42 41 37 37 38 40 40 41 55 48 38 49 52 38 45 42 45 47 45 48 49
42 39 44 44 41 39 38 36 36 37 40 44 45 44 42 43 43 42 46 42 47 51 54 52 59 37 38 46 40 46 52 52 55
44 44 38 37 40 41 40 40 40 41 42 44 43 43 42 43 45 48 50 49 49 51 59 60 69 71 47 47 53 48 45 49 51
44 47 45 39 40 42 43 43 42 39 39 40 46 50 49 48 49 51 53 54 56 59 57 64 63 51 57 52 56 64 51 56 60
48 48 45 48 45 37 39 41 41 42 41 42 40 40 44 48 54 60 66 67 66 64 66 65 64 61 64 65 67 61 64 67 63
41 40 41 41 38 36 33 31 36 46 46 44 46 49 50 54 56 53 59 58 59 62 65 72 74 72 74 72 72 71 65 64 60

GFSFLT1_500_spd_030.txt.gz
Wind_Speed
28 26 25 27 25 25 24 22 21 20 19 19 19 19 19 20 20 19 19 18 18 18 17 14 12 13 13 10 7 6 3 1 2
30 27 26 25 27 27 27 25 23 21 20 19 19 20 23 24 23 21 20 20 21 20 19 18 16 16 15 15 11 7 7 3 1
29 25 27 28 29 28 27 26 25 25 24 23 21 23 22 24 25 25 23 22 21 21 22 21 19 19 18 17 16 11 9 7 4
29 27 24 28 30 27 25 25 25 22 23 23 22 19 17 17 19 21 23 22 22 22 25 23 22 23 22 20 18 16 12 11 7
34 31 29 28 33 30 25 25 26 25 21 24 20 18 15 14 16 17 17 19 22 25 25 26 26 27 26 25 21 20 16 14 10
38 34 31 28 32 31 30 28 24 20 22 23 21 20 17 17 14 13 13 15 16 17 18 20 20 20 24 26 25 22 21 17 15
42 40 39 37 34 33 35 31 30 26 24 26 24 22 20 16 14 14 14 14 11 10 11 12 13 14 19 23 26 25 24 20 18
44 45 44 44 41 43 39 36 33 28 29 28 25 20 20 18 18 18 19 16 12 11 8 7 9 13 15 19 24 25 23 22 21
39 48 47 44 45 46 43 41 39 35 33 30 30 25 21 23 23 21 21 19 18 17 14 12 14 16 17 17 18 19 22 24 23
43 47 50 47 45 43 43 41 42 38 36 34 30 27 29 28 26 21 22 24 25 23 20 20 19 17 19 18 18 18 18 22 24
37 44 45 45 44 46 47 45 44 39 40 39 34 31 26 29 16 22 26 29 24 24 26 25 24 25 23 22 19 19 21 22 27
35 38 38 44 43 41 46 46 46 46 44 45 44 36 30 25 22 24 27 31 29 30 30 31 29 29 29 26 23 21 23 26 30
39 41 39 37 39 36 34 34 43 49 41 39 37 34 34 32 30 31 33 34 39 38 39 38 38 33 35 32 32 30 29 29 33
38 41 42 40 38 35 34 34 34 33 34 31 33 39 39 38 38 34 35 40 43 45 46 47 45 44 41 43 44 42 33 36 40
38 40 42 42 41 38 36 36 36 35 32 31 33 34 36 37 37 35 36 34 36 40 43 43 45 51 50 42 47 47 42 42 46
40 38 39 41 41 40 39 37 36 36 35 33 34 35 36 35 36 38 40 38 42 43 44 49 50 48 55 52 50 44 43 41 44
44 41 41 39 40 41 41 38 37 36 37 39 40 38 38 39 40 42 43 42 46 45 49 50 52 56 53 50 52 50 54 55 59
45 40 39 38 37 37 36 35 37 38 39 38 38 38 39 40 40 42 45 46 48 48 51 51 56 58 55 60 56 53 55 58 60
43 41 41 43 40 35 35 33 33 33 36 38 40 40 40 41 42 45 46 48 49 50 53 54 58 60 63 64 63 62 64 63 63
49 50 48 46 42 37 33 30 33 34 36 37 39 41 41 42 42 44 47 50 51 54 56 57 58 62 68 66 63 67 71 71 70

GFSFLT1_500_spd_033.txt.gz
Wind_Speed
30 29 24 26 25 26 26 25 24 22 21 21 19 18 17 18 17 17 17 17 17 16 14 12 11 12 10 8 8 8 3 5 3
32 30 24 25 26 27 28 27 26 24 22 20 18 18 17 17 17 17 18 20 21 19 16 14 14 13 13 12 10 10 9 8 6
35 34 24 26 28 28 28 27 26 25 23 20 20 21 20 19 19 20 22 23 21 21 19 17 16 15 14 14 14 12 11 11 9
40 37 31 25 27 29 29 29 27 24 23 23 23 21 20 19 19 20 22 22 24 24 23 19 17 17 17 18 17 17 14 14 13
42 38 33 23 26 31 31 29 28 26 24 24 23 22 22 18 18 15 12 13 17 20 21 21 20 19 20 20 20 20 18 16 15
41 38 34 29 28 30 28 27 25 25 25 23 23 24 24 19 16 12 11 12 14 14 14 17 17 15 16 18 20 20 20 20 17
44 45 42 38 36 31 29 27 27 26 24 24 24 24 22 19 14 12 12 14 15 10 11 10 9 8 9 10 13 16 18 20 18
43 41 37 34 32 32 29 28 28 28 29 27 25 24 20 16 15 15 14 15 17 13 12 10 6 2 5 9 10 10 12 13 16
39 40 43 44 41 38 33 34 34 32 31 29 26 23 19 17 16 15 17 17 20 18 14 14 12 11 9 7 9 10 10 13 17
41 41 41 43 41 39 37 38 38 37 37 35 27 23 22 20 21 20 19 21 19 19 19 19 18 16 15 13 11 14 14 16 19
33 36 47 46 45 43 40 41 41 40 40 36 32 29 25 23 23 20 20 20 19 22 25 23 24 24 22 20 16 18 20 22 24
31 35 38 47 49 49 48 44 43 41 38 35 38 35 31 28 29 26 23 19 18 23 27 29 27 28 28 26 25 23 26 27 30
41 41 42 41 41 47 47 42 44 44 40 38 38 37 37 37 38 33 28 25 26 28 29 32 35 33 33 33 30 31 32 33 36
37 40 40 39 35 33 34 38 38 40 43 44 41 45 44 44 46 38 33 33 32 34 32 34 37 38 36 36 34 35 34 40 43
38 41 43 42 40 37 35 33 32 33 38 43 45 45 47 49 45 41 38 36 38 35 36 36 37 38 39 38 38 41 37 41 48
40 41 41 43 43 40 38 35 33 34 34 35 34 34 32 35 39 42 42 41 40 38 39 39 38 41 42 41 44 48 48 48 47
45 43 44 42 42 43 41 39 36 35 35 33 34 35 35 34 35 36 37 40 39 40 41 42 41 44 45 44 47 49 49 49 53
46 46 43 44 43 42 41 40 39 37 36 34 35 34 34 35 37 38 39 42 43 43 44 47 49 47 50 52 53 51 53 55 56
45 47 46 46 44 44 42 42 41 37 36 36 37 37 39 40 39 40 42 45 45 45 46 49 54 57 54 53 54 51 55 58 62
46 44 42 45 46 43 42 41 39 41 41 39 37 37 37 39 42 45 48 48 47 48 49 50 53 54 52 54 56 58 61 63 67

GFSFLT1_500_spd_036.txt.gz
Wind_Speed
27 31 24 14 16 20 21 21 22 22 21 20 20 19 17 17 15 13 13 11 12 11 11 10 10 9 7 5 5 5 5 6 5
33 32 27 17 13 17 22 22 20 21 22 21 19 19 18 17 16 14 15 16 15 14 13 12 12 13 11 8 8 8 7 6 8
36 32 33 23 9 17 21 23 22 23 24 21 20 20 18 16 14 14 15 14 15 17 17 17 15 16 14 11 11 11 10 8 8
38 37 34 29 11 14 21 26 25 24 22 20 18 18 18 17 15 14 15 16 17 19 19 19 18 18 16 15 13 12 12 12 11
40 36 34 33 18 16 23 25 25 23 22 20 22 23 21 18 14 14 12 12 12 11 12 13 15 16 17 17 17 16 15 15 13
33 33 35 36 31 20 21 24 25 23 22 22 24 22 19 17 16 15 12 10 8 7 8 9 10 11 14 15 15 15 14 14 14
33 36 38 35 37 24 22 23 23 24 23 23 21 18 17 17 15 14 12 10 7 7 8 8 8 7 8 10 10 9 9 11 13
32 35 38 39 42 33 27 28 26 26 25 23 23 22 20 16 18 14 9 9 7 8 8 8 7 6 7 7 5 6 7 9 11
36 42 45 46 37 31 27 24 25 28 28 26 26 23 18 16 18 15 6 8 10 8 7 10 9 10 10 8 5 6 8 10 11
39 36 39 40 36 36 33 27 26 29 27 26 24 23 19 14 14 13 13 12 9 10 10 11 13 15 15 12 11 11 12 11 12
39 38 35 33 32 30 34 32 31 28 28 28 24 23 19 14 12 14 14 15 13 13 14 13 13 12 16 18 16 15 15 17 19
31 35 37 39 39 37 35 35 38 37 36 31 29 25 23 20 18 18 19 17 18 19 17 16 15 17 18 18 16 19 21 24 26
38 37 36 32 32 36 40 39 41 38 36 29 28 25 26 27 29 28 25 24 24 25 25 23 25 22 20 22 22 21 21 24 32
36 33 33 32 31 30 30 26 24 26 24 29 28 31 34 34 32 34 33 37 32 32 33 34 31 27 24 24 24 22 22 23 28
37 33 35 36 36 33 33 32 28 29 28 29 27 35 36 37 38 37 39 41 42 40 37 36 33 29 27 28 25 25 27 29 33
39 41 40 39 38 36 38 33 31 27 26 29 30 32 33 37 41 40 43 43 47 43 40 39 37 35 32 30 31 34 36 38 39
42 41 41 43 40 39 37 35 33 32 32 31 31 31 32 32 31 31 35 38 39 39 41 40 40 38 36 36 40 43 42 44 45
47 43 42 41 41 42 40 35 35 34 33 34 32 31 32 33 33 33 35 36 36 37 39 40 40 41 42 43 45 48 50 53 53
51 49 46 45 43 43 43 41 39 35 34 37 37 36 35 35 36 36 37 37 38 39 41 42 44 45 46 48 49 51 55 56 56
51 46 45 47 46 45 44 41 40 42 39 37 39 38 38 39 40 41 41 42 42 43 44 45 46 47 49 51 53 55 56 57 58

GFSFLT1_500_spd_039.txt.gz
Wind_Speed
29 22 16 10 10 10 14 17 19 18 18 20 19 18 17 16 14 14 12 11 11 11 10 8 7 6 5 4 3 3 4 4 5
37 26 20 8 9 9 15 18 19 18 19 19 21 21 18 14 13 13 13 13 11 10 10 11 11 10 10 9 7 5 4 5 6
34 21 26 9 8 9 11 15 19 19 21 20 22 20 19 17 16 14 13 11 12 13 14 13 14 14 12 11 11 9 7 5 6
24 29 33 11 12 7 4 12 17 18 20 21 18 17 18 18 16 15 13 12 13 16 16 15 15 17 14 12 12 12 11 10 8
36 34 33 21 13 12 8 10 15 19 18 17 19 20 19 17 15 13 11 10 11 12 12 10 11 14 14 14 16 14 14 15 14
36 37 36 33 25 16 11 10 15 18 18 19 21 20 18 16 15 14 11 9 7 6 6 4 3 6 7 6 7 11 12 12 12
27 40 40 38 30 20 14 14 17 19 20 21 22 20 18 17 15 14 10 8 6 4 2 1 0 2 3 6 7 6 7 7 7
20 33 44 45 31 27 22 19 17 21 23 23 22 18 17 15 13 11 9 7 5 2 1 1 0 1 2 2 2 3 3 4 4
32 35 40 38 40 34 27 24 23 24 25 22 20 19 15 13 11 12 10 8 8 4 2 3 2 2 3 4 5 5 6 4 3
34 43 45 44 41 33 24 20 20 23 25 27 25 22 16 14 11 13 12 9 7 8 6 5 2 2 4 8 9 8 7 6 3
32 41 38 41 41 30 25 25 20 19 28 28 25 21 20 15 12 15 13 10 7 8 10 9 9 6 5 3 6 11 11 12 11
37 38 38 33 26 23 24 27 27 23 26 25 26 23 19 19 17 16 14 11 10 10 10 13 13 13 10 8 7 9 10 14 16
39 34 31 31 32 31 26 27 24 26 26 28 25 22 20 21 21 20 17 16 17 17 16 15 19 19 16 16 14 13 15 18 21
43 36 33 33 29 29 29 31 32 32 29 27 27 24 22 24 26 25 24 25 25 23 24 24 24 24 26 23 20 20 21 23 26
34 42 39 36 32 30 30 29 28 26 23 20 19 25 29 27 29 30 31 31 29 30 31 31 30 31 29 29 27 26 27 26 28
39 37 38 36 35 33 32 30 28 25 23 22 29 29 33 35 32 33 36 35 36 35 35 37 38 38 37 35 33 30 32 33 33
51 44 39 39 37 36 36 34 29 25 24 23 23 31 36 35 36 38 40 40 38 37 36 37 39 42 42 39 38 36 35 37 38
57 37 43 42 40 40 36 34 29 30 32 28 28 28 28 32 35 38 39 38 35 33 33 34 34 35 38 37 36 37 38 39 40
42 48 51 44 47 45 41 38 34 34 35 34 34 33 32 32 33 34 34 36 37 34 35 35 36 36 38 38 39 40 41 44 46
61 53 50 48 49 47 42 41 39 38 38 35 34 36 36 37 38 39 38 38 38 38 37 38 39 40 41 43 44 45 46 47 49

GFSFLT1_500_spd_042.txt.gz
Wind_Speed
16 16 11 8 4 6 12 13 16 18 20 20 18 20 20 18 17 17 16 14 12 12 10 8 6 4 3 1 2 4 5 6 5
26 26 13 8 7 5 12 16 17 19 21 22 20 20 20 19 19 17 17 17 15 14 13 11 9 8 7 6 6 6 6 7 7
21 23 23 10 12 5 11 17 19 20 20 21 22 22 22 21 19 20 19 17 15 14 12 12 11 13 11 10 10 9 9 10 11
33 24 16 16 9 9 10 18 19 20 20 21 20 20 22 22 19 18 17 15 13 13 13 13 15 16 15 13 13 13 11 11 13
43 28 23 19 13 13 14 14 20 20 19 20 21 23 23 22 21 19 17 14 11 11 13 15 16 17 16 16 15 13 14 13 13
48 35 30 24 20 19 18 15 20 20 19 20 23 24 23 22 21 20 17 12 8 8 8 8 8 6 9 12 13 12 11 11 12
36 40 33 31 24 25 20 16 16 22 22 21 22 22 22 22 21 20 16 11 11 11 8 7 8 8 9 9 7 6 6 6 6
32 37 34 31 28 28 23 19 14 21 24 23 23 23 21 20 21 18 14 13 12 12 9 10 10 9 8 6 6 4 4 3 2
18 24 33 35 34 28 27 22 18 14 22 24 25 23 21 21 20 16 15 14 15 12 10 11 10 8 5 4 4 3 3 2 4
24 26 25 30 31 31 29 26 23 21 17 23 25 23 22 20 17 15 17 16 14 12 10 11 9 8 8 6 4 3 3 3 6
31 29 29 30 29 28 33 32 31 27 27 24 27 25 22 19 15 15 18 17 14 14 13 13 11 9 8 7 6 7 10 12 10
37 33 31 30 28 24 18 23 22 21 22 29 27 27 21 18 18 18 19 17 17 17 15 12 11 13 12 10 12 13 13 14 17
37 35 33 32 29 24 17 22 23 26 23 23 29 27 21 23 27 25 22 21 21 19 18 14 15 13 14 15 15 16 18 20 20
39 39 34 31 28 26 25 24 26 27 26 21 20 29 35 33 31 29 29 27 25 25 23 21 20 18 17 18 18 23 25 25 26
40 40 36 32 29 27 25 26 28 31 31 33 35 38 37 35 32 32 32 31 33 30 28 27 26 27 25 24 25 26 27 30 30
46 42 42 37 38 38 37 30 27 27 29 31 36 39 38 38 33 32 34 37 39 39 36 34 33 32 32 32 32 34 34 34 33
47 44 43 43 38 38 33 31 30 28 24 24 29 37 40 41 42 42 41 39 41 43 43 40 40 38 38 39 39 37 37 36 37
54 49 48 43 43 41 38 36 33 31 28 28 28 30 34 40 44 45 46 48 47 47 45 43 39 39 40 39 38 39 40 41 40
58 54 50 41 39 37 36 37 36 33 33 33 32 31 31 37 41 42 43 42 41 39 37 37 37 36 35 34 35 35 36 38 41
62 59 55 53 44 42 45 47 43 40 35 34 33 32 34 34 34 36 39 42 42 41 39 39 38 38 38 37 38 38 39 40 42

GFSFLT1_500_spd_045.txt.gz
Wind_Speed
20 14 11 8 9 6 14 19 22 23 23 23 23 23 22 20 17 17 15 14 13 10 8 7 5 4 2 2 2 3 4 7 7
33 26 17 11 13 8 8 20 23 25 24 24 25 25 24 21 19 17 16 17 15 13 10 9 8 8 8 6 7 6 5 7 7
24 28 27 21 17 15 6 18 23 26 25 25 25 23 22 22 20 21 18 17 16 14 13 12 11 11 11 10 10 10 8 8 8
20 28 23 25 21 15 10 16 24 25 25 25 23 20 22 24 23 21 18 17 16 15 13 13 14 16 16 15 14 13 12 12 10
22 26 21 21 24 21 16 10 23 25 26 23 22 23 25 26 24 20 18 17 16 14 13 13 17 17 17 16 15 17 15 13 12
36 30 28 27 30 28 20 14 19 25 25 25 25 24 26 26 22 21 20 20 18 14 14 14 13 13 15 17 17 16 15 13 12
43 35 35 30 32 33 24 17 17 25 25 24 26 26 26 26 25 24 24 23 18 16 14 10 11 11 12 11 11 11 10 11 11
26 27 36 38 32 35 30 22 21 23 27 25 26 26 25 25 27 27 26 23 19 18 14 14 14 13 10 10 10 10 10 8 8
22 24 37 40 32 27 31 24 22 20 26 28 27 26 27 27 26 25 24 21 20 18 17 17 17 16 12 11 12 9 9 8 9
20 23 34 30 28 23 24 26 21 20 20 27 28 28 30 28 26 25 24 23 21 19 18 17 17 16 15 14 13 11 9 9 11
20 21 28 28 27 31 28 24 24 21 22 22 23 27 28 27 26 25 25 23 23 21 17 17 15 13 14 14 14 12 11 12 12
28 27 31 31 26 30 33 30 25 23 23 22 21 25 28 25 23 21 24 22 22 21 19 17 16 15 16 14 15 14 14 16 18
38 36 33 30 25 27 26 29 30 28 28 22 22 21 26 27 26 24 24 27 26 26 24 22 21 19 18 17 18 18 16 16 17
43 41 35 28 23 26 26 26 25 27 22 20 19 27 28 33 33 31 30 32 30 28 27 27 23 20 20 18 16 18 19 22 21
43 39 32 28 27 23 27 27 28 27 28 27 27 25 33 34 33 33 35 32 32 31 31 29 26 24 24 23 22 24 27 29 27
44 42 35 29 29 26 25 30 32 33 32 32 34 33 33 33 36 37 38 37 42 38 38 33 32 32 30 31 31 32 32 33 34
44 41 39 34 31 29 29 32 38 40 40 41 42 43 43 44 44 46 49 52 50 45 45 38 39 39 38 39 38 37 39 39 40
45 44 43 42 38 36 34 32 32 33 33 35 38 44 47 48 49 49 50 45 44 47 46 44 48 48 48 47 47 45 44 45 43
51 52 51 47 46 45 42 42 39 34 31 28 27 30 32 39 47 52 52 53 54 55 53 53 53 53 53 52 51 47 44 45 45
59 61 53 51 50 48 46 43 40 36 35 34 33 31 31 33 38 43 48 53 55 56 56 56 54 53 52 47 45 45 46 45 43

GFSFLT1_500_spd_048.txt.gz
Wind_Speed
30 26 23 21 17 9 12 16 24 26 26 26 25 25 25 23 19 18 16 16 17 16 15 11 8 6 4 1 2 4 5 7 9
38 32 27 21 19 16 13 18 21 25 26 28 28 27 28 27 23 20 16 17 17 16 14 12 8 5 3 4 4 2 3 4 6
38 35 31 29 25 19 14 18 23 26 28 29 29 31 31 30 27 25 22 18 17 15 14 11 9 7 6 8 8 6 5 5 4
39 38 35 29 27 23 20 20 25 27 29 29 30 29 30 31 27 27 23 21 21 17 15 12 10 11 12 13 12 11 8 8 7
39 40 36 27 26 29 23 21 23 27 30 28 28 29 29 30 31 30 25 24 23 19 17 15 14 15 15 16 16 14 11 11 10
41 38 38 32 27 27 26 23 19 27 29 30 29 31 29 29 30 29 26 26 24 21 19 16 17 15 16 17 17 15 13 12 14
45 40 40 39 38 36 30 26 19 23 29 31 31 30 31 30 29 28 26 27 24 21 18 17 16 16 17 15 15 15 13 14 14
45 44 46 46 41 33 37 32 25 22 27 31 32 31 29 28 32 31 29 27 24 22 19 17 16 15 13 10 11 14 14 14 13
50 48 49 50 44 36 36 29 26 22 26 30 31 31 31 32 33 32 29 27 25 23 20 19 17 16 15 13 16 16 14 12 10
48 43 28 33 47 43 42 35 31 26 27 30 31 31 34 32 32 30 30 27 25 23 21 21 20 19 16 16 17 15 15 13 12
31 25 27 32 34 45 35 36 32 28 26 29 33 33 32 32 31 30 29 26 26 24 22 20 19 18 18 18 17 17 16 14 12
33 29 29 35 38 44 35 27 26 27 28 30 33 33 29 30 30 30 29 28 27 27 25 22 20 20 19 19 19 19 18 16 14
34 25 25 36 42 28 29 29 29 27 27 27 29 31 26 29 31 30 29 29 29 30 28 25 23 21 19 19 20 20 19 14 9
37 26 25 28 31 32 33 32 33 30 30 24 24 21 22 27 32 30 30 33 31 29 30 29 26 25 24 22 22 22 20 18 16
45 39 37 37 37 36 35 37 38 34 32 32 28 26 26 26 31 34 31 32 33 32 30 28 27 26 25 22 23 23 23 23 22
49 47 45 41 37 32 34 36 37 34 31 28 31 26 24 26 30 39 38 33 32 31 32 31 31 29 29 27 29 29 29 29 29
54 51 48 44 39 32 37 35 36 34 32 29 28 26 25 27 25 36 42 33 35 38 38 36 37 37 36 36 35 34 37 37 37
57 52 49 47 42 31 34 38 36 36 36 35 35 34 34 34 32 36 41 41 43 44 43 45 43 48 44 43 44 40 41 41 43
56 53 48 46 42 38 34 34 35 39 41 43 41 41 39 39 41 45 49 52 50 51 51 55 51 50 52 50 52 49 48 50 50
62 54 52 48 42 38 37 35 32 34 41 42 47 46 46 48 48 47 49 50 49 50 54 57 55 51 51 52 51 51 51 54 56

GFSFLT1_500_spd_051.txt.gz
Wind_Speed
38 36 34 28 24 24 21 21 30 35 32 30 28 28 27 24 20 18 16 15 16 17 15 14 13 12 9 9 9 8 8 8 7
37 33 32 29 25 25 24 21 25 34 33 33 31 31 31 28 23 21 18 17 19 19 17 16 13 12 10 8 7 6 5 4 4
38 36 34 32 29 27 27 25 28 34 33 34 35 34 33 31 28 25 23 20 20 21 20 17 14 13 11 9 7 6 5 3 3
40 40 37 34 32 30 28 28 31 32 32 33 34 35 35 35 31 28 25 23 24 23 20 18 15 13 11 10 10 7 5 6 6
45 42 38 35 32 31 31 31 31 31 33 33 33 34 35 33 33 31 28 25 27 26 24 21 19 16 15 13 12 9 8 8 8
51 48 45 42 38 35 33 29 31 33 32 32 34 35 34 34 33 30 28 28 29 28 26 24 21 18 16 16 13 11 10 10 10
54 49 51 48 43 38 36 32 27 32 33 34 33 34 34 34 32 30 31 32 30 31 28 26 23 20 18 16 15 13 12 12 12
58 53 56 52 46 39 36 35 30 29 33 35 34 33 32 32 32 33 34 33 32 32 29 27 25 21 19 16 14 13 13 15 15
62 60 59 54 52 46 40 34 29 27 27 33 34 33 31 35 34 32 31 33 32 32 31 28 24 21 19 15 16 16 15 14 14
61 60 60 57 55 52 45 39 35 33 28 31 34 34 35 34 33 33 33 33 31 31 30 28 24 23 20 17 19 18 16 16 13
59 59 58 58 56 55 46 39 41 34 30 30 31 34 35 34 33 33 36 34 32 31 30 28 27 25 23 18 21 18 18 16 13
52 53 55 57 51 50 47 44 38 34 32 32 28 33 32 32 33 34 34 33 32 32 33 30 28 28 24 20 20 18 17 15 12
44 50 53 39 37 40 52 53 44 37 35 34 25 26 29 30 33 35 33 34 34 34 34 32 29 27 22 21 20 18 18 15 9
32 32 32 35 33 42 39 51 46 41 36 28 26 23 28 32 33 34 35 35 35 34 32 30 28 26 24 23 21 19 19 16 14
37 36 32 34 32 44 47 46 42 41 37 32 26 25 27 34 35 35 35 34 33 32 31 30 29 26 23 21 21 21 20 21 18
41 36 32 33 38 45 49 44 45 43 42 37 30 29 27 30 33 33 35 35 34 34 33 32 30 27 26 25 25 26 26 25 25
45 43 42 41 40 39 43 43 43 40 40 40 35 31 31 30 30 30 32 36 38 35 35 32 30 30 30 31 31 31 31 30 29
52 51 50 48 46 46 46 43 39 42 43 42 38 31 33 32 32 33 36 38 41 37 36 35 36 37 38 38 36 36 37 35 36
55 51 53 53 51 51 47 44 44 45 45 42 40 38 35 40 39 39 40 32 43 44 43 43 41 46 46 47 45 45 43 44 43
59 54 49 49 50 51 51 47 50 49 49 53 46 45 43 44 53 63 37 28 35 45 50 49 49 51 53 50 52 53 51 51 52

GFSFLT1_500_spd_054.txt.gz
Wind_Speed
42 37 33 27 25 25 26 28 31 36 34 33 32 30 29 28 22 21 19 19 18 17 15 13 12 11 8 7 8 9 9 8 7
45 41 35 30 27 27 27 28 29 33 37 37 34 32 33 31 27 24 20 20 21 18 17 15 14 13 11 9 8 8 8 6 5
47 42 39 36 32 31 28 27 27 34 38 38 37 36 35 34 30 27 25 23 22 21 20 19 16 15 14 11 9 7 6 5 4
46 45 41 38 33 31 27 29 30 31 36 39 37 36 37 36 32 30 28 24 24 23 21 21 18 17 15 13 11 10 9 8 7
52 50 42 40 37 36 33 29 31 31 36 40 37 36 36 36 36 34 30 26 25 24 23 24 22 20 18 16 15 13 13 11 10
54 54 50 47 46 42 36 34 32 33 35 37 38 39 37 38 35 33 31 29 28 26 25 25 23 22 20 20 17 16 15 14 13
57 62 57 49 47 44 42 37 31 31 34 37 38 38 39 38 35 34 33 33 30 29 28 26 25 25 24 22 18 17 16 16 15
58 59 61 53 49 47 44 40 36 33 32 36 38 38 38 36 37 37 37 35 32 30 29 28 28 27 26 22 18 17 18 18 16
61 62 62 57 53 51 46 40 37 32 30 30 35 34 35 37 38 38 36 35 35 33 30 30 30 29 28 23 19 19 19 18 15
61 64 65 62 58 55 50 44 37 34 34 29 31 34 34 36 37 37 35 35 35 33 32 32 32 31 28 24 21 21 20 16 15
53 64 65 64 60 57 53 47 41 38 35 29 26 30 34 36 35 35 35 33 31 32 33 32 33 31 28 26 21 22 21 17 15
53 61 64 68 66 57 54 53 43 41 36 35 30 29 28 34 34 35 37 34 32 34 33 32 31 30 29 26 23 22 21 17 14
48 56 61 65 66 61 58 57 49 47 39 39 33 29 22 26 35 35 34 33 34 37 36 33 33 32 31 28 26 23 19 17 14
48 47 52 60 61 61 59 57 55 51 44 39 36 34 30 25 32 33 34 36 37 37 36 34 32 31 31 29 27 24 21 18 14
44 43 43 53 60 59 55 55 54 51 46 45 40 40 32 26 29 32 33 34 36 35 35 34 33 32 30 28 27 24 20 17 17
43 40 39 45 47 48 50 52 56 58 54 50 45 42 32 30 26 32 33 32 33 33 33 32 31 30 29 27 25 24 23 20 21
41 42 38 37 40 44 50 48 51 56 58 54 48 41 36 31 26 28 34 35 34 33 32 31 31 30 29 29 29 28 28 24 22
48 42 40 41 42 43 47 46 50 49 59 55 47 45 43 34 31 29 33 35 34 34 34 34 33 32 33 34 35 33 32 30 28
50 47 47 47 46 45 45 48 50 51 57 52 48 46 38 38 37 37 37 37 39 41 40 38 38 36 37 38 39 37 37 36 36
54 51 50 50 50 51 53 55 56 55 53 49 50 49 44 43 39 40 41 41 43 42 46 45 43 35 39 43 43 44 44 43 43

GFSFLT1_500_spd_057.txt.gz
Wind_Speed
37 34 32 28 23 21 20 21 26 30 31 31 30 27 25 25 22 21 21 20 18 16 14 13 12 10 9 7 5 4 2 3 4
36 38 37 32 27 26 22 22 24 27 34 35 32 31 29 28 26 23 21 20 20 19 17 16 15 12 9 6 6 6 4 4 4
42 47 38 39 32 28 23 23 24 25 30 35 36 35 34 31 29 26 25 23 23 21 20 19 17 14 12 9 8 6 4 3 2
47 33 38 41 34 30 28 28 27 27 28 34 38 37 35 34 32 29 28 26 24 23 22 22 20 18 15 13 10 8 7 7 6
50 49 42 42 39 34 34 30 29 26 27 28 36 38 37 35 36 34 31 27 25 25 24 25 24 22 19 17 14 12 11 11 11
50 52 45 45 44 42 36 34 32 27 26 25 31 39 39 38 36 35 32 29 28 26 25 25 26 24 22 20 17 15 14 14 15
46 55 57 45 50 47 41 40 35 30 26 27 28 35 39 38 35 34 33 33 31 26 25 25 26 26 25 23 19 17 15 16 17
53 53 54 53 47 53 47 43 40 35 33 28 27 29 34 33 34 35 35 34 33 29 26 25 28 28 27 24 19 17 17 17 17
51 60 64 66 65 56 50 48 43 38 34 28 25 28 30 33 34 36 35 35 34 33 30 28 29 28 28 25 22 18 18 18 16
54 56 64 61 58 58 55 52 47 42 36 33 29 23 30 33 35 34 35 36 36 35 33 33 30 30 29 27 24 20 19 19 16
48 45 55 56 59 59 59 53 50 46 40 35 30 27 25 29 32 34 35 35 34 36 37 35 33 32 31 29 25 22 19 19 16
54 46 48 57 60 61 60 60 50 48 43 37 34 31 26 25 28 30 32 32 32 33 35 36 33 34 32 29 27 24 21 20 17
55 54 48 52 59 60 62 60 54 51 47 41 35 30 27 23 21 28 30 30 31 33 34 33 34 34 32 31 29 27 22 21 18
52 51 54 48 54 60 63 61 57 54 52 46 33 36 33 29 24 21 28 31 33 35 35 36 33 32 31 32 30 28 24 23 21
51 51 47 50 53 54 59 62 62 56 55 46 43 42 38 32 32 25 26 32 32 33 34 33 32 33 32 31 30 27 24 23 22
53 50 51 47 49 52 57 62 65 60 58 58 49 45 42 37 39 32 28 31 34 33 33 34 33 34 32 31 30 27 24 23 24
49 49 49 47 47 51 56 59 64 65 65 60 58 51 50 47 43 35 30 28 34 32 32 33 33 34 32 31 29 27 25 25 25
49 47 47 45 45 48 53 55 57 58 57 58 57 55 56 53 48 39 33 28 33 34 34 34 34 34 34 32 30 30 31 31 31
50 46 44 45 45 48 50 52 54 52 55 56 58 57 58 56 53 42 35 33 31 35 35 35 36 36 35 36 37 36 36 36 34
48 47 46 47 47 47 45 48 47 47 54 55 57 61 59 59 54 43 39 36 34 32 36 37 38 39 38 38 33 37 37 34 34

GFSFLT1_500_spd_060.txt.gz
Wind_Speed
31 32 29 25 18 17 16 13 10 20 25 25 23 21 20 20 18 19 21 18 16 15 13 11 11 9 6 5 2 2 3 2 2
42 34 40 29 22 20 19 20 17 16 25 28 27 26 25 22 20 19 20 21 20 18 16 15 13 11 9 7 4 3 5 4 4
40 41 57 33 32 26 23 20 19 18 21 29 31 31 30 27 25 23 22 20 20 20 18 17 15 13 10 7 7 6 4 3 2
55 39 47 47 42 31 26 24 21 18 18 23 29 31 30 30 27 25 25 23 21 20 20 19 18 15 13 11 10 9 6 3 2
43 48 43 26 32 25 29 24 21 19 20 18 24 31 34 33 32 29 26 25 23 22 23 22 22 20 17 15 13 11 9 7 5
44 44 35 48 41 40 22 28 23 21 19 19 22 23 32 36 34 32 28 26 25 23 23 23 24 23 21 19 17 15 11 10 9
37 36 40 45 42 34 30 34 28 25 22 21 19 19 22 33 35 32 30 29 28 25 23 23 24 25 24 23 20 17 14 13 12
38 40 47 45 45 47 39 38 31 32 28 25 22 18 16 21 32 33 33 30 30 30 26 24 24 25 25 25 21 19 17 16 14
45 42 39 39 49 49 51 37 37 37 34 31 25 17 17 20 26 32 31 31 30 32 30 26 25 24 24 24 21 21 19 18 16
46 50 52 51 55 48 49 45 42 41 36 34 29 20 18 20 22 26 29 30 30 29 31 30 28 26 25 25 24 22 21 20 17
47 55 58 59 58 57 66 51 39 27 35 37 33 25 22 20 19 23 27 27 27 29 30 31 31 29 27 27 27 26 23 22 18
46 49 52 54 57 59 59 50 47 45 46 40 36 29 25 21 20 20 25 25 26 28 29 30 30 31 30 28 28 28 26 24 19
55 43 42 51 53 59 59 57 53 51 46 39 34 29 26 25 21 21 23 25 27 29 29 29 30 31 31 32 31 31 29 27 23
72 53 51 59 51 53 58 57 54 52 49 43 35 34 36 31 26 23 20 24 26 29 29 29 29 29 30 31 32 33 31 30 27
69 46 31 49 48 52 55 57 54 52 52 46 43 39 41 37 31 27 23 22 22 28 31 30 29 30 30 30 31 32 32 31 28
79 41 43 49 51 49 49 52 55 52 51 52 49 47 44 42 37 32 29 27 24 23 30 32 31 31 29 29 32 32 31 30 29
71 79 60 53 53 54 52 49 53 53 52 53 53 52 47 45 41 35 34 31 29 25 26 32 33 33 32 31 34 35 33 32 30
84 71 74 54 53 52 46 50 50 53 55 57 58 58 53 50 46 42 38 36 30 29 26 28 34 34 34 35 35 36 35 33 30
63 78 82 69 56 55 52 47 50 51 54 57 60 60 59 55 52 47 44 41 37 34 30 28 34 36 35 34 34 34 34 33 31
52 66 69 62 58 57 55 52 48 49 51 54 55 57 61 60 58 53 50 49 46 41 35 31 32 35 34 32 33 34 35 35 34

GFSFLT1_500_spd_063.txt.gz
Wind_Speed
23 32 28 27 20 15 13 8 6 12 19 20 20 18 18 17 17 18 18 16 13 14 13 11 10 7 5 2 1 2 4 5 5
25 28 36 36 29 22 18 13 12 9 16 22 23 22 22 21 19 19 21 21 18 15 14 13 10 8 6 3 1 2 6 6 6
34 27 35 40 37 29 25 19 17 13 15 20 26 27 25 23 22 22 22 22 21 19 17 15 12 10 8 7 5 4 4 5 4
26 30 38 35 38 25 20 26 25 17 15 18 21 25 27 27 24 22 22 21 21 22 19 17 15 13 11 9 8 8 5 4 2
25 26 30 38 37 44 41 42 26 19 17 15 19 23 29 29 29 26 24 23 21 21 21 20 20 17 16 14 12 11 7 5 3
25 23 25 32 36 44 50 36 29 20 17 15 16 18 22 28 29 28 26 24 23 21 21 21 22 21 18 16 14 12 10 9 7
34 28 27 32 31 38 21 25 27 23 17 12 15 14 18 21 28 31 30 29 26 25 23 22 22 22 21 19 18 15 13 12 10
36 39 33 30 34 35 33 34 35 33 23 15 14 14 10 16 21 30 34 32 29 28 27 24 23 23 22 21 19 18 17 15 13
36 36 45 31 37 33 30 30 33 36 27 20 19 16 15 14 16 21 30 32 31 30 29 27 25 23 22 21 20 20 20 18 15
47 37 28 35 35 35 39 34 40 59 40 33 28 21 19 14 14 15 22 30 32 30 28 30 28 25 23 21 22 21 20 21 18
57 54 50 42 46 46 45 30 36 49 48 38 35 31 23 16 12 12 17 24 27 28 28 29 30 29 27 25 24 24 23 22 21
64 65 59 50 47 48 43 44 50 42 38 36 33 27 22 17 15 15 14 18 24 27 28 29 28 30 30 28 27 27 26 25 23
61 62 63 63 54 52 54 55 54 48 41 35 24 19 24 22 22 19 18 18 23 27 28 28 32 31 31 31 31 31 29 27 26
59 61 63 65 55 62 61 55 46 33 39 38 32 23 26 26 25 23 21 21 21 24 27 28 29 30 32 32 31 32 32 30 26
68 54 57 49 59 63 67 62 56 50 20 31 38 33 34 33 28 26 26 24 22 22 27 28 29 30 30 30 30 31 31 30 28
81 61 59 70 55 63 63 67 64 54 54 51 43 38 38 37 34 31 32 26 26 24 23 28 29 30 29 30 30 30 29 29 29
88 85 67 67 63 60 56 50 61 61 53 52 47 42 42 40 39 35 37 32 29 28 24 23 23 30 31 32 32 32 31 31 31
79 83 86 76 66 46 51 61 58 50 47 49 49 47 47 45 43 42 39 38 36 31 28 25 23 20 30 34 33 32 33 34 34
76 75 78 80 75 55 59 53 50 47 48 46 48 50 51 50 48 47 45 42 40 36 32 28 26 26 25 30 32 34 36 34 36
72 76 69 78 72 79 54 53 51 52 49 46 46 51 55 53 50 50 50 47 45 41 35 34 32 30 31 29 31 34 37 36 37

GFSFLT1_500_spd_066.txt.gz
Wind_Speed
8 18 14 19 18 19 19 17 18 20 20 21 23 23 21 18 16 17 16 16 16 14 15 13 9 6 5 4 5 5 6 7 5
23 21 17 18 22 23 23 19 17 22 24 23 23 25 24 23 20 19 19 18 17 15 15 13 9 7 4 1 2 5 6 6 6
14 18 22 18 24 26 20 23 22 22 26 26 27 27 25 24 25 23 23 21 20 18 17 13 11 10 7 3 1 3 4 4 4
31 18 7 17 22 29 28 22 21 20 18 23 27 26 26 25 23 23 22 21 21 19 17 15 14 12 8 6 4 4 4 3 2
29 22 14 12 17 27 34 26 27 21 16 18 24 29 29 29 28 26 24 23 22 20 19 18 16 13 12 11 10 9 7 4 3
33 26 22 16 11 15 28 30 36 24 23 22 25 29 31 29 29 28 26 24 24 23 23 23 22 19 17 16 14 13 11 9 6
34 35 29 25 23 22 28 44 48 41 30 28 23 26 29 29 30 29 30 30 28 26 25 23 23 23 22 20 19 17 15 14 11
38 39 33 39 31 30 37 33 41 54 42 32 26 21 22 25 26 30 33 31 30 28 26 25 24 24 23 22 20 20 18 17 16
34 38 42 41 34 36 25 31 40 41 42 35 29 25 22 23 22 22 28 34 32 32 29 28 26 24 23 22 21 22 22 21 19
38 37 42 42 44 41 34 39 35 40 34 38 34 30 28 26 25 21 22 31 35 32 31 31 29 27 26 23 23 24 24 23 22
50 39 44 46 43 36 41 40 34 40 42 43 40 36 32 29 25 25 23 25 31 33 32 31 30 30 29 27 25 25 25 25 25
63 52 48 50 49 44 44 49 41 37 40 45 44 40 33 32 26 21 22 23 25 30 33 33 31 32 32 30 29 29 27 27 25
67 61 56 51 52 54 40 37 35 32 40 47 56 48 39 37 34 26 22 23 26 29 31 32 35 34 33 33 33 33 32 30 26
71 68 58 60 59 50 54 50 48 45 34 48 57 44 58 44 40 32 28 27 26 28 30 32 32 33 34 34 33 34 35 34 30
78 74 71 64 65 68 61 58 59 52 42 39 42 39 36 50 42 34 32 30 30 26 26 29 32 34 34 33 35 36 36 36 34
78 84 77 68 77 68 68 65 58 59 56 47 50 56 46 43 41 37 35 33 32 28 24 23 29 32 33 34 34 36 37 37 37
77 78 88 80 73 78 73 77 71 61 62 57 52 47 51 46 45 44 40 40 38 34 28 24 22 27 31 33 35 35 36 37 37
82 81 80 88 84 75 80 81 65 64 69 63 56 46 46 45 44 46 46 43 41 39 33 31 29 27 27 33 34 34 38 38 38
84 85 82 80 89 85 80 71 63 67 57 63 62 55 48 48 47 47 51 49 44 44 40 35 34 32 32 29 28 32 37 38 39
77 82 83 82 84 94 90 76 81 85 68 59 67 52 56 60 51 51 53 53 50 47 46 42 41 37 34 32 29 28 28 34 38

GFSFLT1_500_spd_069.txt.gz
Wind_Speed
14 28 19 18 17 17 15 16 19 20 21 23 23 20 18 17 16 17 16 16 15 14 15 15 10 8 7 6 7 6 6 5 5
16 16 15 15 14 16 17 16 20 24 23 23 24 24 22 20 19 18 19 19 17 15 14 12 11 9 5 5 4 7 7 6 5
27 25 25 19 16 19 15 13 16 20 24 24 25 26 25 23 22 22 22 22 20 20 16 14 12 10 7 6 7 7 7 5 5
30 32 33 29 21 18 22 21 20 15 14 21 23 25 25 25 23 24 24 23 23 20 18 16 14 12 9 8 7 9 7 6 5
32 32 32 31 30 33 30 30 27 20 16 13 16 25 27 27 27 27 26 23 22 21 21 19 18 14 12 11 8 8 8 6 4
35 33 36 39 38 37 39 39 36 33 29 23 21 20 28 31 30 29 28 28 27 26 24 23 20 18 16 15 13 11 10 10 9
39 34 41 38 34 36 40 37 41 37 35 30 29 27 27 34 34 33 33 32 31 29 28 27 25 23 21 20 17 16 15 14 13
45 41 42 42 40 36 37 41 44 47 39 40 34 34 31 31 38 38 39 37 34 32 29 28 27 26 24 23 22 21 19 19 18
47 48 46 45 41 37 39 44 44 50 48 47 39 35 34 35 36 42 43 43 40 37 32 31 30 27 26 26 25 24 24 23 22
47 46 47 50 45 42 44 45 35 46 53 54 47 39 41 39 37 37 42 46 44 42 38 36 33 32 30 27 25 25 26 26 24
59 55 47 52 50 49 49 51 38 39 43 47 54 52 46 44 42 39 40 42 44 45 43 41 39 36 34 32 29 28 27 27 26
59 60 62 52 55 53 52 52 41 39 39 45 50 46 46 46 43 40 41 39 39 43 47 45 42 41 40 37 34 33 31 29 26
62 62 62 61 56 58 57 54 47 38 48 49 50 46 47 46 44 41 39 37 36 38 42 47 47 45 42 40 38 38 36 33 29
66 67 62 61 63 62 62 59 51 47 51 57 57 54 52 49 45 43 39 38 37 35 36 42 46 45 44 41 39 39 38 36 33
74 72 69 65 64 66 64 62 58 42 48 60 58 55 58 52 50 45 42 40 38 37 37 37 40 41 41 40 40 38 38 38 35
80 78 75 71 71 70 70 66 61 59 44 53 51 51 49 43 44 55 49 46 43 38 37 36 37 38 37 38 40 40 39 39 38
87 82 78 77 77 75 74 73 71 68 58 67 60 45 41 42 50 58 58 54 46 41 40 36 33 33 35 39 39 39 39 40 39
83 84 79 79 76 83 78 78 73 80 72 54 50 51 50 48 45 55 52 58 51 49 44 40 37 33 32 34 36 38 41 42 40
71 86 84 81 80 78 87 83 85 85 65 63 51 58 55 51 46 51 49 57 51 55 50 46 43 40 37 34 31 36 38 40 39
56 63 87 86 85 84 81 90 89 85 87 75 67 61 58 63 59 55 60 60 62 57 55 52 48 44 42 40 36 37 38 38 35

GFSFLT1_500_spd_072.txt.gz
Wind_Speed
14 25 20 20 19 18 20 21 19 20 26 26 21 22 20 18 17 16 16 17 15 15 16 15 13 11 9 8 8 7 7 7 8
13 19 20 20 18 19 22 22 22 22 24 29 25 21 20 19 18 18 18 18 18 16 15 16 14 11 9 8 8 9 7 6 8
19 20 19 21 23 24 23 20 20 22 24 26 30 26 22 19 20 19 19 19 18 18 17 16 14 12 9 8 8 9 9 7 7
26 23 22 22 27 26 28 28 25 23 23 25 27 28 27 24 21 21 20 20 20 20 18 16 15 12 10 9 8 10 9 8 6
34 32 30 28 31 31 31 32 29 26 25 25 27 27 28 28 27 25 23 22 22 22 21 19 17 13 12 12 11 11 11 10 8
33 34 35 37 37 37 37 35 33 29 27 27 29 32 30 29 30 29 27 26 25 23 22 21 19 16 16 15 15 13 12 11 10
35 34 32 42 43 41 39 36 36 35 31 31 29 30 34 34 33 33 32 32 30 28 27 25 23 22 21 19 17 16 13 13 13
40 38 37 36 42 41 45 43 40 38 39 36 34 32 31 33 36 36 37 35 34 33 31 30 29 28 26 24 22 21 19 17 16
45 44 43 41 43 42 43 40 42 39 38 41 40 36 34 35 35 39 39 39 39 38 36 35 33 32 31 30 28 27 24 23 21
53 50 51 49 46 49 45 43 43 39 40 45 48 46 42 39 38 37 38 43 44 42 40 39 36 36 34 33 31 29 27 27 25
49 57 58 56 53 50 54 49 47 46 50 46 55 54 50 45 41 38 39 40 43 46 45 43 40 39 37 36 33 31 30 30 28
52 54 59 62 57 57 56 56 51 49 52 48 52 57 56 52 46 42 40 39 40 45 49 48 46 44 43 40 37 36 34 34 31
61 59 57 64 64 60 61 59 55 52 54 49 43 43 53 60 54 53 50 46 44 45 46 48 50 47 46 45 43 41 39 38 33
67 66 65 64 67 68 63 60 59 54 56 56 47 42 47 51 61 59 51 49 47 45 45 45 45 46 47 49 48 47 45 43 38
70 72 72 69 68 71 71 68 62 61 58 57 49 47 42 47 57 55 52 49 47 45 44 44 41 42 44 47 49 47 46 45 42
71 72 75 77 73 70 72 72 69 67 65 60 56 53 50 52 55 56 55 52 47 45 46 44 40 39 39 40 46 46 46 46 44
73 77 76 80 81 77 72 74 71 68 71 67 64 61 57 58 62 64 60 57 54 53 48 42 39 39 35 36 41 44 45 47 48
54 64 76 81 83 83 77 75 76 73 74 73 71 66 57 61 67 65 61 62 67 57 53 46 42 41 40 37 39 40 44 46 46
48 47 54 69 83 86 85 79 80 81 78 80 77 66 74 65 58 72 65 68 58 56 50 52 49 48 47 39 37 38 40 41 45
42 46 48 52 60 85 89 89 84 84 86 82 83 82 69 68 65 58 57 50 49 52 44 56 59 56 51 47 42 42 42 42 43

GFSFLT1_500_spd_075.txt.gz
Wind_Speed
12 21 23 22 21 20 20 20 18 22 27 26 24 23 20 18 17 17 16 15 16 15 15 15 14 11 8 8 8 8 8 10 10
15 21 26 25 23 21 22 23 22 25 27 29 27 25 22 20 19 19 19 19 18 17 17 16 14 13 10 8 7 8 7 8 10
17 23 21 20 22 23 24 26 27 28 29 30 32 28 27 26 25 21 19 19 20 19 18 17 15 12 11 10 8 8 7 6 9
20 23 20 23 25 26 28 29 29 30 29 29 34 32 28 26 27 24 21 20 20 20 18 18 17 14 12 11 10 10 9 7 7
26 23 27 18 19 26 30 30 28 27 30 30 31 35 34 30 28 26 24 22 23 22 21 21 19 17 14 12 11 11 11 9 7
34 32 30 29 23 25 26 29 30 29 29 29 33 33 36 36 34 29 27 27 27 26 24 23 22 20 18 15 13 13 12 11 10
35 37 35 36 34 30 30 30 32 32 30 29 29 35 36 35 35 33 32 31 30 30 29 28 25 23 22 18 16 15 14 14 14
35 35 36 36 36 40 38 35 34 35 35 34 30 30 35 37 34 34 34 34 33 32 31 30 29 27 26 22 18 18 17 18 18
39 38 38 36 37 37 45 43 41 40 39 36 36 42 36 34 35 37 36 37 36 35 33 34 34 31 29 27 24 23 23 22 21
44 43 43 43 42 41 45 48 48 45 44 45 46 51 43 35 35 35 37 40 40 38 37 36 35 35 34 31 30 30 29 28 27
44 47 48 48 46 46 47 49 50 49 48 47 48 43 41 41 41 40 39 39 39 42 42 40 39 38 37 36 34 33 33 33 33
48 48 51 54 54 52 52 52 53 54 53 49 47 48 42 47 47 48 45 42 41 41 43 44 43 42 40 37 36 35 35 36 35
55 55 54 56 63 61 59 58 58 57 57 58 57 53 51 48 54 56 55 50 45 43 42 43 45 46 44 44 41 40 39 38 37
57 60 62 61 62 65 71 67 65 64 61 61 63 61 58 55 55 58 60 57 55 50 44 44 43 44 45 45 45 46 45 45 42
62 63 63 66 67 67 67 72 75 72 67 64 64 65 63 60 58 51 61 61 60 58 53 50 46 44 47 46 47 49 49 49 47
67 69 70 71 71 72 73 73 72 78 76 71 69 67 66 65 62 58 53 51 57 61 60 57 50 48 47 45 46 47 50 52 51
44 64 78 77 78 77 75 77 78 76 80 79 75 73 69 67 65 56 53 47 48 55 62 56 49 48 45 44 44 42 43 45 49
44 46 51 69 84 84 83 81 80 82 81 82 82 79 76 72 67 60 57 53 53 56 63 55 53 51 47 46 43 39 43 44 45
35 43 49 53 54 76 90 88 85 83 85 85 82 84 82 76 72 67 61 58 56 52 60 61 62 57 52 48 45 42 43 44 41
35 33 37 46 52 53 62 86 94 90 87 87 87 85 86 85 79 75 70 66 63 64 61 66 64 58 53 53 54 48 48 49 44

GFSFLT1_500_spd_078.txt.gz
Wind_Speed
22 22 24 17 24 23 22 21 21 24 28 27 25 22 20 17 17 16 14 15 15 16 15 15 13 11 10 9 8 7 7 7 10
20 23 26 26 24 23 25 26 23 23 25 28 28 26 22 20 19 19 18 18 18 18 17 15 14 12 10 9 9 8 9 8 8
21 22 23 29 27 26 27 27 28 28 29 29 31 30 25 23 23 22 19 19 20 21 19 18 16 14 11 9 8 9 9 8 10
23 26 24 26 26 25 27 27 28 29 29 30 32 32 28 26 25 24 22 21 22 22 21 21 19 15 12 11 10 9 8 9 10
25 24 35 36 25 22 24 27 28 28 29 30 31 35 33 28 26 25 24 23 24 24 24 24 22 18 16 14 12 12 10 9 8
27 24 21 27 8 17 25 24 27 28 27 29 29 31 35 32 28 27 26 27 26 27 27 27 25 22 20 17 15 14 13 12 10
35 34 28 24 22 21 22 22 24 28 30 28 29 31 30 33 34 31 29 29 29 28 29 28 27 25 23 20 17 16 15 14 13
41 39 40 38 36 32 29 27 27 26 31 34 33 30 31 33 36 38 37 35 32 31 30 29 29 28 26 23 21 19 17 16 15
40 44 46 45 42 42 40 39 37 32 33 36 37 33 32 34 37 36 37 39 40 38 34 31 31 30 29 27 24 23 22 20 18
42 43 43 44 45 46 46 45 42 43 41 37 37 38 35 36 35 30 34 39 39 40 39 37 35 33 32 30 28 28 27 26 24
46 45 46 47 47 46 45 44 44 43 44 45 42 41 41 40 39 39 43 38 42 42 41 41 39 37 35 34 33 32 32 32 30
49 49 50 50 50 51 50 49 47 47 46 48 49 49 47 47 46 46 51 45 43 42 41 41 42 40 38 36 35 34 35 36 34
51 51 53 53 54 55 54 54 53 52 52 51 53 54 52 51 52 52 43 40 40 46 43 40 40 40 40 40 38 39 38 38 37
48 52 55 55 56 57 59 60 59 59 58 58 58 60 59 57 55 51 51 46 41 42 45 46 44 43 41 39 39 41 41 42 41
47 48 50 54 58 61 62 64 65 65 64 63 63 63 62 65 61 57 57 53 47 42 44 48 50 48 46 41 40 41 42 45 46
52 53 55 56 58 59 63 65 68 70 71 71 69 69 69 66 66 67 65 63 60 57 56 55 55 56 51 49 44 40 41 43 46
46 48 51 56 60 64 67 69 70 71 74 77 77 76 74 73 72 71 69 69 67 63 62 56 55 52 54 53 53 49 47 49 47
48 48 50 50 51 52 56 63 74 78 77 77 81 81 81 81 80 77 73 73 72 70 68 63 61 60 56 57 59 54 52 48 47
38 39 41 44 43 43 50 55 58 66 82 84 83 83 86 86 85 83 81 77 75 74 72 65 59 59 60 58 51 53 53 51 48
30 28 28 30 33 37 38 39 52 59 63 75 91 89 87 88 89 88 87 84 80 77 74 70 64 63 60 45 54 53 53 52 52

GFSFLT1_500_spd_081.txt.gz
Wind_Speed
26 20 19 17 20 22 21 20 19 20 24 24 24 22 18 15 14 13 13 13 13 14 14 12 10 9 8 7 7 7 7 6 6
16 18 21 19 22 21 24 21 22 22 23 25 26 25 21 18 16 17 15 14 14 15 15 13 12 10 9 8 8 7 7 7 7
24 22 23 16 25 25 25 26 27 27 27 27 29 29 25 21 19 19 17 16 16 17 18 16 12 12 10 8 8 7 7 7 7
30 28 26 28 30 26 29 29 30 30 30 29 30 30 28 25 23 22 20 18 17 18 19 19 17 15 11 9 8 7 8 8 9
32 28 32 31 37 31 28 30 32 32 31 29 29 31 30 27 25 23 22 21 19 18 20 20 20 17 14 11 9 9 9 8 8
30 30 26 30 27 32 34 30 30 29 29 29 27 27 29 30 28 25 24 23 21 20 19 21 21 20 17 15 12 11 10 9 9
29 34 30 29 33 25 33 32 31 28 26 26 24 23 25 26 30 30 27 26 24 22 21 21 22 22 21 18 16 14 12 11 11
34 33 33 32 32 30 32 35 29 25 27 27 28 26 26 28 28 29 32 29 28 26 24 24 24 24 24 23 20 18 17 15 14
41 40 40 39 36 30 37 24 22 21 21 23 28 28 29 29 28 28 30 34 34 31 29 28 27 27 27 26 24 23 22 20 18
41 45 46 45 44 40 38 37 34 34 32 30 27 27 32 33 34 31 30 32 34 36 36 36 33 31 31 30 28 27 27 27 24
43 44 46 49 49 47 44 44 43 43 42 39 39 37 34 33 36 35 34 32 31 33 34 35 37 37 36 34 32 32 31 32 31
45 47 47 49 49 50 50 49 49 50 48 46 45 43 42 40 37 38 38 37 36 33 35 34 35 38 39 38 36 35 35 36 36
47 48 49 50 50 51 52 52 52 51 50 49 46 47 46 46 45 44 43 43 44 41 42 41 45 41 39 40 38 37 38 40 39
50 50 51 51 52 53 53 53 54 54 54 53 52 50 50 49 50 51 49 47 47 50 46 50 50 44 38 37 37 37 38 41 42
52 55 55 56 56 57 56 57 57 58 58 57 56 56 56 54 54 54 55 54 54 51 50 47 50 48 47 41 39 38 38 38 42
46 50 53 55 56 58 60 60 60 61 62 62 62 62 61 61 61 60 60 60 58 57 57 53 49 50 44 43 45 42 41 43 43
44 45 46 48 50 52 54 56 60 62 62 66 67 66 67 67 67 67 67 66 64 63 62 60 59 53 50 46 44 42 44 49 51
47 48 48 49 50 52 55 57 59 61 63 65 66 69 72 72 73 74 74 73 73 70 69 69 65 63 61 57 51 51 52 50 54
49 50 51 49 49 49 49 51 54 58 62 64 68 72 73 75 77 79 80 79 79 78 75 75 73 70 67 65 61 59 57 54 53
43 45 48 51 52 52 51 53 53 51 55 61 64 67 71 75 79 82 83 85 85 84 83 80 78 77 74 72 71 68 63 62 59

GFSFLT1_500_spd_084.txt.gz
Wind_Speed
14 15 31 15 14 19 15 17 18 20 20 20 18 17 15 12 11 10 9 10 10 10 7 7 8 8 7 3 2 1 3 2 3
24 17 12 17 17 17 20 16 19 21 22 23 22 20 17 15 12 12 10 9 10 9 12 11 9 9 8 7 4 4 5 5 5
26 19 18 19 17 22 24 22 19 22 24 23 25 25 22 18 15 13 12 10 9 11 14 17 11 11 7 7 6 5 6 7 6
30 28 26 24 27 34 34 28 24 23 25 25 26 27 27 23 20 16 13 11 10 11 16 14 11 4 8 9 5 4 5 6 6
30 30 29 27 32 26 34 30 26 22 25 26 26 26 25 26 23 19 17 15 13 12 14 16 12 13 12 8 4 5 5 6 6
33 31 31 30 25 23 24 29 28 34 26 19 19 22 27 26 26 24 20 19 16 15 14 16 15 13 13 8 7 6 6 7 7
36 34 32 28 28 28 33 26 26 33 25 29 25 33 33 21 22 27 24 21 20 19 18 18 19 18 17 16 14 12 11 10 10
38 38 36 31 29 31 33 37 35 39 36 31 29 28 24 22 21 20 24 25 24 22 20 20 22 23 22 21 20 19 17 14 13
36 38 39 36 35 36 37 34 42 41 32 28 32 32 29 27 20 20 22 23 26 25 23 22 22 23 25 24 22 23 22 20 18
39 42 43 43 41 42 45 38 36 30 28 28 32 34 34 30 25 23 23 24 25 25 28 28 24 23 23 24 25 26 27 26 26
40 44 45 45 46 45 44 41 36 37 39 20 20 22 17 21 24 24 26 27 25 24 25 26 28 29 30 28 27 29 31 32 32
43 40 43 46 47 47 47 45 40 38 38 42 39 36 33 30 28 27 27 29 31 29 26 26 26 27 27 26 27 31 34 35 36
43 44 46 47 47 47 47 49 48 44 44 44 45 45 43 41 38 36 36 35 34 35 33 30 31 29 28 29 29 30 35 37 39
49 49 49 50 50 51 50 50 50 50 48 46 47 47 47 46 44 43 43 42 40 40 39 38 36 38 38 37 36 35 39 42 42
47 49 49 50 51 51 52 51 52 52 52 50 49 48 48 49 49 49 47 45 46 45 48 46 44 44 45 45 42 44 42 40 38
51 50 49 52 53 53 53 53 53 54 53 53 52 52 51 51 51 51 52 52 51 50 50 51 52 51 49 47 45 44 44 46 45
51 50 49 52 53 55 56 56 56 57 57 57 57 57 58 57 57 58 57 57 57 55 57 55 54 53 52 53 51 50 48 51 51
43 46 46 48 49 51 52 53 53 55 57 57 58 58 59 61 64 64 64 63 63 62 62 62 62 60 59 57 56 56 53 53 55
47 45 46 47 49 49 50 51 52 53 53 53 55 57 58 61 63 65 68 69 70 69 68 68 68 68 68 65 62 62 60 59 58
50 49 49 50 50 50 51 52 53 54 55 55 56 56 57 59 62 65 68 70 72 73 74 76 75 75 74 73 71 70 69 68 66

GFSFLT1_500_spd_087.txt.gz
Wind_Speed
17 19 32 28 29 23 16 16 17 18 19 18 18 17 14 11 7 6 5 5 4 6 4 7 6 3 2 1 1 5 5 5 4
14 15 14 32 24 23 22 19 19 20 22 23 22 20 17 14 11 9 8 6 6 5 8 5 4 5 5 3 1 1 3 2 3
18 15 8 7 16 25 24 25 22 24 24 25 26 24 22 19 15 12 10 9 7 6 6 9 9 8 7 5 4 4 4 2 0
20 17 18 18 22 24 20 29 27 24 24 28 27 27 26 23 20 16 13 11 7 6 7 9 12 10 7 6 5 5 5 4 3
26 21 20 20 19 17 23 32 32 27 23 28 28 29 29 26 23 21 18 16 12 9 8 10 12 13 9 10 8 7 7 6 5
24 24 24 24 23 22 27 32 25 33 41 30 20 20 21 24 27 26 24 22 17 13 12 12 13 15 14 13 12 11 10 8 7
25 27 28 27 24 23 27 20 17 29 25 31 20 20 21 21 23 26 27 24 22 18 16 16 18 18 18 18 17 15 12 11 10
28 29 30 29 26 26 21 23 27 32 23 28 40 26 21 24 28 31 30 26 26 23 20 19 18 18 19 19 19 18 16 14 12
23 25 29 32 33 31 28 26 27 33 29 31 25 27 24 28 23 36 28 26 27 26 24 22 20 20 20 20 21 22 21 19 16
22 23 27 30 33 33 34 32 31 32 31 28 32 35 29 25 23 29 19 20 21 27 28 25 23 21 20 21 22 23 23 23 22
29 27 26 30 33 34 33 33 34 34 32 33 29 37 38 32 32 24 26 26 26 23 25 25 26 26 24 23 23 25 26 27 28
32 33 34 32 34 39 40 39 39 39 39 35 34 30 26 22 13 23 23 20 16 21 23 24 24 27 29 30 31 32 31 31 30
23 28 32 39 35 38 41 43 42 41 38 37 36 36 40 44 31 28 26 26 25 25 27 26 26 26 26 28 30 32 32 31 31
43 43 43 42 39 41 43 44 43 42 39 39 38 38 39 42 39 33 36 36 34 33 32 32 32 32 31 30 31 30 28 28 31
54 52 51 51 50 48 47 48 49 47 45 44 42 41 40 40 40 40 38 38 36 36 37 38 38 37 39 39 37 36 38 39 39
51 51 50 53 53 52 50 50 50 50 48 47 45 43 43 43 44 45 44 43 44 42 42 41 41 40 41 44 45 45 45 45 45
49 48 49 51 52 52 50 50 49 49 49 49 49 48 47 46 46 47 47 47 47 47 46 46 46 46 46 46 47 47 49 50 50
46 46 48 50 51 52 51 53 52 52 52 51 51 51 51 52 52 52 52 52 52 52 53 53 52 51 52 52 52 53 51 50 51
41 40 43 44 46 48 49 50 51 51 51 52 53 53 53 52 53 54 54 54 55 56 57 59 60 60 59 60 60 58 58 57 56
45 44 44 44 44 46 46 46 48 49 50 50 50 51 52 53 52 52 53 54 54 55 57 58 58 60 62 64 65 66 65 65 65

GFSFLT1_500_spd_090.txt.gz
Wind_Speed
13 15 17 21 26 23 22 23 22 21 21 22 22 20 17 14 10 7 5 5 6 7 8 7 7 5 6 8 7 4 4 7 8
13 8 15 17 30 27 25 23 21 24 25 25 25 23 19 16 15 11 8 7 7 7 9 9 9 9 8 7 9 7 5 5 7
7 9 16 20 32 33 27 21 23 23 25 27 29 27 24 20 17 13 11 9 10 9 9 10 10 10 9 7 6 7 7 7 7
13 12 12 7 24 35 29 24 26 25 27 27 29 31 29 24 20 17 15 13 11 11 13 14 13 13 11 9 9 8 6 6 7
18 19 13 10 13 15 20 32 14 33 31 27 29 27 29 27 26 23 19 15 14 14 15 17 18 17 15 14 13 11 11 9 8
23 21 17 15 16 18 19 24 30 31 35 28 27 28 27 28 27 25 23 21 19 18 18 18 17 18 18 17 18 15 15 13 11
24 22 18 17 19 19 20 24 25 20 22 29 37 30 30 27 28 28 28 26 24 22 21 20 19 21 22 22 20 19 18 14 14
22 21 22 21 22 22 20 21 21 15 14 24 17 22 23 25 28 29 28 27 27 26 25 25 23 21 22 21 23 23 20 17 16
21 24 25 25 25 26 24 21 19 15 23 23 26 23 21 32 30 27 27 28 32 31 33 30 28 26 25 23 23 22 21 21 20
21 22 24 23 23 26 27 26 23 21 18 22 31 27 22 27 25 24 30 27 35 37 39 30 28 28 27 26 26 27 27 26 24
23 22 20 21 23 23 23 24 23 24 26 27 25 22 21 20 35 30 31 27 33 37 41 34 31 30 28 28 27 28 29 28 28
29 28 27 27 26 25 26 27 27 28 28 28 25 24 22 23 30 34 37 25 23 30 25 33 36 34 32 29 29 30 30 29 28
35 32 31 32 35 35 34 32 31 31 32 33 32 27 27 30 30 29 39 18 29 18 18 28 27 26 26 30 32 35 34 33 33
40 34 28 28 30 31 31 30 33 32 33 35 34 34 33 33 33 30 31 35 27 27 21 23 23 24 24 26 28 32 33 34 36
40 40 39 38 37 40 40 39 38 36 37 38 39 39 39 37 34 32 30 28 28 30 32 32 33 34 30 32 34 34 33 33 34
41 39 40 43 46 48 48 47 47 46 45 44 43 43 41 40 39 38 38 37 35 35 35 36 37 40 40 39 40 41 41 43 43
45 46 48 52 55 54 54 52 51 50 49 47 46 45 45 44 43 42 42 42 41 39 38 40 40 40 40 42 44 45 45 46 48
47 47 49 49 46 46 47 49 48 48 48 48 47 46 46 45 45 45 45 46 46 46 44 41 44 46 45 45 47 47 48 47 48
38 40 42 44 45 47 48 48 47 47 47 48 48 48 47 47 48 48 48 48 48 49 50 49 48 49 52 54 54 53 54 54 55
42 41 42 42 42 42 42 44 45 45 46 47 47 47 47 47 46 46 46 47 49 50 50 52 54 54 54 55 57 58 60 61 61

GFSFLT1_500_spd_093.txt.gz
Wind_Speed
14 21 15 18 32 27 24 18 17 20 20 21 21 19 18 16 12 10 9 10 10 11 12 11 11 10 9 10 8 7 8 9 9
13 8 13 18 15 13 24 23 20 20 21 23 25 24 21 18 16 12 12 13 13 13 14 14 13 12 12 11 12 11 10 11 10
10 10 11 13 12 18 22 19 21 21 24 25 27 26 26 24 21 17 15 13 13 14 15 15 14 14 12 12 13 12 12 12 12
12 10 11 10 11 16 23 23 26 25 25 25 25 25 26 26 25 22 19 17 16 17 17 18 15 14 14 14 13 12 12 12 11
20 18 16 9 9 20 32 35 38 27 22 26 26 28 28 29 28 24 22 20 19 18 19 18 19 18 18 17 16 14 13 13 13
26 23 21 15 13 18 21 36 34 25 34 31 29 30 31 31 30 27 25 22 21 21 20 19 18 21 20 20 18 17 15 14 13
26 26 25 18 16 18 19 20 26 24 26 35 29 38 34 31 32 32 31 28 27 25 22 21 21 21 22 22 20 20 18 16 16
25 25 24 23 18 17 15 20 24 17 16 17 21 37 36 34 34 33 33 32 31 31 28 26 27 26 26 25 24 22 20 20 18
22 23 25 23 19 20 20 19 22 23 14 16 27 22 29 36 33 33 37 34 34 35 33 34 33 31 29 26 26 27 26 24 22
31 26 28 26 24 22 23 24 22 21 19 15 17 24 23 18 30 30 38 36 36 31 37 43 40 36 33 28 28 29 28 28 27
28 25 26 28 27 24 21 23 23 24 23 21 22 25 21 20 20 22 37 37 31 32 34 34 37 37 34 33 33 30 29 29 29
31 27 29 29 27 24 22 21 23 20 20 20 21 23 22 18 17 21 22 26 35 31 36 37 33 36 33 36 34 33 31 30 31
35 27 27 31 29 26 24 24 24 24 25 25 24 21 21 21 20 21 24 25 26 20 36 33 34 31 42 42 35 39 34 31 32
34 37 36 35 33 34 33 33 33 33 30 29 30 28 26 25 26 25 22 21 20 24 32 31 33 27 23 44 39 35 29 30 32
38 43 42 41 41 41 41 41 34 31 29 28 29 28 28 28 28 27 28 25 23 24 27 43 35 17 13 18 22 27 26 30 29
42 45 45 49 44 47 40 38 35 35 37 39 39 38 38 36 34 33 31 31 30 29 29 28 26 27 29 26 29 28 28 35 36
47 38 38 40 43 42 45 46 46 45 49 52 52 50 45 42 41 39 37 37 36 35 34 33 33 33 33 37 36 37 42 43 45
40 45 49 51 55 53 49 51 49 55 55 55 53 51 49 46 44 42 41 40 40 40 40 38 38 38 38 40 39 40 42 43 46
48 49 51 52 52 53 54 55 55 53 53 53 52 51 48 47 45 44 44 43 44 44 44 44 44 43 43 43 45 47 47 47 48
49 49 48 46 47 48 50 53 54 53 52 52 52 51 50 47 47 47 47 46 47 47 48 48 49 49 49 50 50 51 53 55 56

GFSFLT1_500_spd_096.txt.gz
Wind_Speed
23 15 13 14 18 18 19 15 15 17 17 19 19 20 18 17 14 12 12 12 13 13 12 13 12 10 9 9 10 10 10 11 11
15 21 18 12 25 30 24 23 21 19 21 19 21 20 20 20 17 15 14 15 14 15 13 14 13 13 12 12 10 9 11 11 12
13 13 14 13 21 19 15 19 23 22 21 22 21 21 22 21 20 17 16 17 17 18 17 18 15 14 13 11 12 12 10 10 11
16 15 16 16 14 16 21 29 22 22 21 21 22 23 24 24 23 21 19 19 19 20 20 19 19 18 16 15 15 14 15 13 13
20 19 15 12 12 16 17 32 29 24 22 19 21 24 26 27 27 25 23 21 21 21 21 21 22 21 20 18 18 17 16 15 13
22 21 18 15 12 13 18 26 26 31 24 23 22 22 26 29 30 29 28 27 24 22 22 22 22 23 22 21 19 19 17 16 15
22 24 22 20 17 16 18 28 28 35 32 33 29 32 23 28 33 33 32 33 31 28 24 23 25 24 23 23 20 21 20 18 17
17 23 23 20 21 19 19 21 22 17 32 35 26 24 31 28 37 37 34 35 34 32 29 27 26 26 26 25 26 25 23 22 20
17 18 20 25 23 22 21 21 20 27 24 25 20 16 18 32 38 33 35 33 35 36 34 32 30 28 29 27 28 28 27 25 24
31 28 25 18 20 21 22 22 21 25 25 16 11 14 19 22 22 34 36 32 38 37 37 38 37 34 34 35 31 32 31 30 28
39 34 30 28 26 25 26 25 26 29 25 23 20 20 18 18 20 22 24 24 30 38 44 42 40 40 37 34 39 38 33 31 32
42 35 31 26 28 30 29 28 27 28 25 22 25 22 19 16 20 21 18 19 28 26 43 44 40 34 36 35 35 31 37 37 35
40 39 37 30 30 32 30 28 26 28 25 20 18 16 15 16 17 19 19 21 20 26 27 46 46 38 40 40 36 34 38 39 39
33 37 38 42 35 37 36 34 30 30 27 25 23 22 23 24 22 21 21 22 24 22 22 28 27 26 28 43 39 35 39 37 36
41 37 39 40 43 42 39 36 36 34 33 30 29 28 25 21 20 19 20 22 24 22 23 22 23 26 26 35 41 39 39 36 41
39 42 44 46 47 47 45 41 42 42 42 40 38 37 30 30 28 26 27 27 28 28 27 27 25 24 30 25 24 22 22 22 27
46 48 48 51 45 46 47 48 46 44 45 44 43 43 39 36 37 41 43 41 37 34 33 32 30 29 29 31 31 31 33 35 37
52 54 51 53 50 49 50 50 47 50 51 51 48 45 45 49 53 50 48 45 42 41 40 39 38 36 36 36 36 36 37 39 39
47 44 42 47 48 48 51 49 49 51 52 53 55 54 54 58 56 53 50 46 45 45 45 44 43 42 42 41 42 42 42 43 44
41 40 40 42 44 45 44 45 49 52 52 53 53 55 54 55 52 49 49 49 49 48 47 47 47 47 46 46 46 46 46 48 48

GFSFLT1_500_spd_099.txt.gz
Wind_Speed
25 25 24 21 23 22 21 21 22 21 22 21 19 19 15 14 13 12 12 11 11 14 13 12 11 10 9 9 10 10 10 10 10
18 29 17 17 25 26 23 19 18 21 21 22 23 23 19 19 17 14 13 13 13 14 13 13 12 11 10 10 9 10 10 10 11
17 20 20 16 17 21 22 19 24 20 19 23 24 25 24 22 20 18 15 14 14 15 16 16 15 15 14 12 11 11 10 11 11
18 14 16 20 19 22 23 18 28 24 24 23 26 26 26 24 23 21 19 16 15 16 15 17 18 17 17 15 13 12 12 11 10
21 22 20 23 21 22 26 23 34 28 25 25 22 25 25 25 23 24 22 21 18 16 17 19 19 18 20 17 17 16 14 13 13
20 19 22 22 21 21 23 33 35 17 34 22 24 25 26 27 27 27 28 27 23 22 19 19 20 22 22 21 21 19 17 16 16
22 23 22 21 23 16 19 22 24 31 27 25 26 32 26 26 26 27 29 30 29 27 24 22 22 22 23 23 22 23 22 20 19
26 24 25 24 22 20 21 18 18 26 32 24 33 33 32 35 26 27 29 32 33 31 30 28 26 25 24 23 23 25 24 22 21
28 26 18 20 22 23 22 21 19 21 21 21 23 38 32 35 34 25 32 31 34 33 33 32 32 30 28 26 25 24 27 27 27
25 24 18 14 13 22 20 20 21 19 19 26 20 26 27 22 19 15 24 31 37 36 35 35 38 36 33 32 30 28 26 29 28
33 29 24 23 18 17 17 18 21 20 21 22 18 17 15 17 16 23 18 23 25 21 26 39 39 40 39 38 36 35 34 36 37
39 34 29 29 27 25 28 26 24 25 23 22 22 20 23 21 20 17 18 20 26 18 23 29 27 35 44 41 39 39 39 37 40
38 40 42 42 43 36 30 28 28 27 27 25 26 23 22 20 20 15 14 14 14 18 23 21 29 27 37 45 42 39 35 39 34
35 36 38 39 40 39 33 31 29 30 29 28 27 24 23 21 16 14 15 17 19 18 20 21 21 22 18 28 37 42 41 44 40
34 36 34 35 36 41 43 37 35 34 33 31 30 25 24 20 20 20 19 20 21 21 20 19 20 18 23 28 27 30 30 36 39
43 41 34 39 42 43 46 46 45 39 40 37 33 31 30 24 24 27 26 23 22 21 20 21 23 24 25 28 30 29 33 35 36
47 45 46 43 46 44 46 46 45 46 48 44 40 38 39 36 37 37 37 37 36 32 29 30 32 33 32 32 32 31 34 32 32
50 40 44 44 45 49 50 50 51 49 49 47 44 43 45 46 41 42 44 44 45 45 42 42 40 39 40 38 37 36 38 39 38
46 50 44 48 52 53 55 57 61 57 55 51 49 48 48 46 47 49 50 49 49 46 46 50 50 45 43 42 43 43 43 43 44
37 40 51 64 60 59 61 62 68 56 53 53 54 56 51 48 52 53 56 54 54 48 50 53 50 48 47 46 46 47 47 47 48

GFSFLT1_500_spd_102.txt.gz
Wind_Speed
8 19 31 23 21 20 20 23 25 26 25 23 20 18 16 15 13 11 8 6 8 9 9 8 8 7 6 6 8 8 9 8 7
15 19 24 23 24 23 23 23 26 27 26 24 22 21 19 17 15 13 10 8 8 10 9 8 9 9 8 6 7 8 9 8 8
17 19 30 29 28 26 26 24 24 24 26 25 24 23 22 20 19 16 14 12 8 9 12 12 11 12 9 9 8 7 8 7 8
22 21 23 27 19 28 31 30 27 23 23 22 24 25 24 23 23 21 20 17 13 11 12 11 14 14 12 11 12 11 9 9 9
18 21 19 14 22 22 24 32 36 14 30 32 26 24 26 28 25 25 24 23 20 15 13 12 13 14 15 17 14 12 13 12 12
17 15 15 18 27 24 30 32 32 35 25 36 36 30 30 31 30 28 28 27 25 21 18 15 14 15 17 16 16 16 17 15 15
23 18 16 18 22 25 27 22 28 33 30 27 40 32 31 31 31 29 30 29 29 27 24 21 18 16 15 16 19 18 18 18 17
22 22 22 22 23 24 20 30 18 21 22 23 27 31 33 28 26 27 30 30 31 31 30 27 24 21 19 17 18 19 22 21 20
29 28 26 22 26 28 21 20 18 20 22 24 21 27 26 36 33 32 30 29 31 31 32 31 29 27 27 23 21 21 22 23 24
29 28 28 26 26 29 28 25 23 22 22 22 20 19 22 26 36 40 41 38 34 31 30 31 34 32 31 30 27 27 26 25 26
32 29 28 26 22 20 16 23 24 23 22 22 20 18 27 16 16 18 34 28 19 23 27 29 32 36 37 34 32 33 34 31 30
38 36 33 30 28 23 22 18 22 19 19 21 19 19 15 14 12 11 15 22 22 26 24 22 26 20 25 35 31 35 39 38 36
40 42 39 35 33 30 29 30 24 24 26 22 22 23 21 20 17 17 22 21 23 19 21 21 16 19 22 30 26 34 36 40 39
38 39 41 43 41 39 39 38 36 32 29 29 28 26 24 22 22 22 21 19 18 18 17 17 19 21 21 22 25 17 19 23 33
40 40 39 39 43 45 45 43 43 38 33 34 32 30 29 25 25 23 21 20 19 19 18 19 21 19 20 20 18 17 19 25 25
39 39 36 35 37 39 42 44 44 42 39 38 36 34 31 28 28 29 24 21 21 22 22 22 22 21 20 18 19 19 21 24 29
38 38 40 40 42 42 42 43 43 44 44 43 40 38 38 35 35 34 31 28 27 27 28 27 28 29 29 27 28 30 29 30 30
45 45 44 45 46 47 46 44 47 48 48 48 48 47 44 41 42 39 39 39 36 37 38 38 39 40 40 40 39 38 37 37 38
48 48 54 46 47 50 51 51 50 52 51 52 53 52 52 51 50 49 46 44 43 44 46 46 48 49 49 49 45 41 41 42 44
48 47 49 49 42 52 51 58 57 59 58 57 57 57 58 57 57 54 51 49 49 48 49 52 54 53 53 51 48 47 46 48 47

GFSFLT1_500_spd_105.txt.gz
Wind_Speed
9 4 37 31 30 28 23 23 21 23 22 20 18 15 13 13 12 9 7 5 12 12 8 3 3 3 3 3 4 4 5 4 5
12 11 9 29 25 25 21 28 29 25 24 24 21 19 18 15 14 11 10 13 9 2 7 7 5 4 3 3 3 2 4 5 6
15 14 12 31 30 28 28 28 26 24 24 24 24 22 21 20 17 15 13 11 11 19 9 8 14 9 8 6 4 3 4 4 6
16 16 16 19 26 29 29 28 23 21 24 25 23 23 24 23 22 20 18 17 14 16 17 14 15 12 10 10 7 6 6 6 7
17 17 19 29 33 36 36 31 23 30 22 23 23 23 25 25 25 24 23 22 20 18 16 14 15 14 13 12 10 9 8 9 10
22 19 21 17 18 27 27 31 30 27 22 27 28 29 28 27 26 27 26 26 24 22 19 17 16 16 15 15 12 11 12 11 12
28 21 14 16 17 19 25 26 23 24 28 31 27 31 34 36 29 29 30 28 27 26 25 22 21 18 17 16 15 16 15 15 14
26 24 18 15 15 16 21 26 21 25 22 18 18 24 30 41 28 28 32 30 30 29 28 28 27 24 21 18 17 17 19 18 17
22 23 24 19 18 17 17 18 18 16 18 13 17 20 18 26 31 34 31 30 31 30 29 31 31 30 28 25 21 23 20 19 19
30 27 23 22 22 21 19 22 23 19 18 19 19 16 19 20 20 23 30 28 32 32 31 33 32 32 30 31 28 29 26 23 23
35 31 26 29 28 28 26 27 25 25 24 22 21 20 19 19 20 19 26 28 32 36 36 36 35 33 32 36 34 34 30 28 28
36 36 34 28 28 27 27 25 25 26 24 20 20 22 20 19 18 17 15 18 18 25 26 20 23 24 23 22 27 34 35 33 33
37 39 41 37 33 32 29 27 24 23 24 23 20 19 21 20 21 17 16 18 16 14 21 24 26 24 20 23 19 20 26 29 28
40 43 44 44 42 39 36 35 35 33 30 25 22 23 26 23 23 21 21 20 19 20 18 20 20 23 21 19 17 20 19 24 25
43 45 46 47 47 45 42 43 42 39 39 38 35 31 29 29 28 24 23 23 23 21 23 22 24 21 21 23 24 23 22 22 21
42 44 45 46 46 51 53 50 48 47 47 44 41 37 34 35 32 30 28 26 25 26 26 25 25 25 22 24 23 22 21 19 20
40 42 43 44 44 45 48 52 53 53 53 50 48 46 42 39 36 34 35 33 33 31 30 28 27 25 25 24 24 26 27 28 26
41 41 42 42 43 45 45 47 47 49 49 49 46 44 44 45 43 40 38 38 38 37 34 33 31 31 33 32 32 35 36 37 35
45 44 42 42 43 45 46 47 46 46 48 47 49 48 47 47 47 45 44 44 44 46 44 41 40 41 40 43 44 44 44 44 47
41 48 48 51 49 49 48 49 49 49 50 52 52 55 56 54 54 53 52 52 51 50 52 51 48 48 49 48 50 51 51 52 51

GFSFLT1_500_spd_108.txt.gz
Wind_Speed
7 20 31 33 26 23 25 24 22 21 19 16 14 11 10 12 12 10 6 7 6 14 9 8 5 4 3 3 2 1 1 1 1
5 7 5 27 28 26 29 26 23 21 22 20 16 15 13 13 13 13 12 10 7 10 9 4 1 3 4 3 3 2 2 2 2
8 11 9 10 35 30 31 23 23 19 16 20 19 16 17 17 16 14 13 13 11 14 6 4 11 6 7 6 4 3 3 2 2
14 12 11 12 25 30 28 25 26 26 28 21 22 18 19 20 20 19 16 15 13 14 11 10 15 12 10 7 6 5 7 5 4
15 18 15 12 16 28 28 32 36 29 24 20 21 21 20 20 23 23 21 20 17 17 14 14 14 14 12 10 10 9 10 9 8
20 21 17 17 22 27 31 32 34 31 26 19 19 23 19 17 21 24 25 25 21 20 20 16 12 12 12 12 12 14 14 13 11
22 22 18 21 26 24 25 27 23 32 15 23 26 25 18 20 19 25 24 26 28 24 22 21 17 16 15 16 18 18 17 17 14
26 29 25 24 25 25 21 16 28 15 32 27 29 25 24 19 24 28 23 28 28 30 27 25 24 24 23 21 18 20 20 19 18
34 31 32 30 28 25 20 14 22 27 19 22 19 28 24 22 27 18 22 27 28 28 33 30 29 29 28 27 23 25 24 20 19
40 35 33 28 30 28 22 18 16 15 12 9 16 19 16 17 17 20 23 20 26 27 31 31 28 27 28 30 32 32 29 27 25
34 37 31 32 25 26 25 25 19 19 17 17 18 18 19 17 16 16 16 20 19 25 25 31 29 31 28 33 35 36 35 34 32
29 33 34 31 31 32 28 26 25 23 22 23 23 22 20 21 20 20 17 18 19 22 28 27 26 35 32 31 35 28 37 33 37
38 45 42 37 33 31 29 28 27 27 28 28 24 20 20 20 20 21 19 17 17 20 22 23 29 28 22 25 27 28 22 23 29
37 36 39 42 40 37 32 27 28 29 26 25 26 25 25 22 19 18 20 20 21 20 21 21 27 24 23 25 23 22 20 16 16
41 40 40 42 42 40 40 37 36 34 34 31 30 28 28 27 24 21 23 24 23 24 26 24 24 28 23 19 21 21 24 20 20
43 43 44 46 47 45 45 43 43 40 40 40 35 36 37 36 33 29 28 30 30 28 27 29 27 25 25 27 24 23 27 25 24
44 46 46 47 47 46 45 46 47 48 48 46 45 45 45 43 43 40 36 33 34 33 32 32 32 31 30 29 29 30 29 29 29
42 44 44 46 46 45 44 45 45 49 52 53 54 53 52 52 50 46 44 40 39 40 39 38 37 35 35 37 34 34 33 33 33
40 41 42 42 44 44 45 47 48 49 49 50 51 53 51 52 50 46 45 43 45 44 43 43 42 42 41 41 40 40 40 40 40
42 42 43 42 43 43 44 45 48 49 50 51 51 50 51 51 51 52 49 48 49 50 48 47 46 46 47 48 46 47 47 48 48

GFSFLT1_500_spd_111.txt.gz
Wind_Speed
32 28 31 31 28 25 24 23 20 20 18 15 12 10 9 9 9 8 6 4 2 5 6 4 4 5 4 4 4 5 5 5 5
14 9 21 34 33 26 27 25 24 24 22 20 17 14 11 10 7 10 7 8 6 7 7 8 8 7 5 3 3 4 5 4 4
6 10 2 36 32 31 29 24 29 27 25 21 19 18 17 15 13 12 11 10 8 8 9 12 15 7 5 4 3 3 3 4 4
11 8 10 9 15 31 29 26 28 26 28 24 24 22 21 20 19 17 15 13 10 9 7 6 5 8 5 6 6 6 4 5 5
25 20 17 17 14 20 33 38 33 27 28 27 24 23 23 20 20 18 17 16 13 12 12 10 10 12 9 10 9 9 8 9 9
23 11 15 13 10 8 24 27 30 30 25 27 26 22 24 23 21 20 20 18 16 17 16 14 13 13 12 12 12 13 14 14 14
12 12 12 17 18 20 15 23 25 23 28 34 29 23 21 25 22 19 21 20 18 20 20 19 18 15 15 15 14 16 18 18 16
19 19 22 20 20 19 22 21 16 20 31 37 32 22 20 21 22 20 20 21 24 21 24 23 23 23 21 19 19 18 19 19 21
29 34 32 27 24 23 21 16 20 24 22 26 29 27 29 24 24 19 24 13 21 21 23 24 27 27 24 24 26 24 24 23 21
29 29 23 23 25 26 27 22 21 20 16 19 22 27 22 19 22 26 23 19 16 18 26 26 23 25 28 30 30 30 31 29 26
17 16 25 20 26 25 25 21 22 19 17 16 15 15 18 20 19 18 17 17 17 20 18 29 26 24 27 30 29 30 34 32 32
34 23 42 29 25 26 22 23 25 23 19 21 20 22 21 17 20 19 17 16 18 17 22 21 23 25 26 33 35 32 33 34 31
30 30 26 34 27 28 29 24 25 28 25 25 23 20 19 20 21 21 19 19 18 16 17 21 23 25 28 25 26 32 35 34 35
39 31 38 41 37 37 34 33 35 33 25 24 23 25 22 20 19 18 21 22 20 19 19 21 23 25 25 27 28 28 27 27 29
57 50 32 32 34 35 35 31 30 29 29 30 30 28 32 26 26 24 26 25 22 20 21 23 25 24 25 24 29 25 25 25 26
53 53 52 40 43 40 40 41 42 42 40 37 33 34 33 29 29 31 32 28 25 22 23 23 25 24 27 28 27 27 27 24 27
48 54 43 40 48 46 48 47 43 43 43 43 42 38 37 38 37 37 37 37 34 31 30 29 29 31 33 32 33 30 29 31 32
37 45 48 41 45 50 47 47 47 45 44 44 46 46 45 45 46 44 44 43 44 42 41 39 35 34 36 38 38 36 35 34 36
28 33 43 48 47 49 50 50 48 47 47 46 46 47 47 49 51 53 53 52 53 51 49 48 44 41 40 42 43 42 40 40 40
29 28 34 43 46 47 48 49 48 49 48 45 47 48 48 49 48 49 51 54 52 51 48 47 46 46 47 46 45 47 49 48 46

GFSFLT1_500_spd_114.txt.gz
Wind_Speed
31 29 27 28 28 25 23 22 21 19 17 16 16 14 13 12 11 9 6 6 4 5 8 5 6 7 6 6 5 6 7 7 4
36 25 27 28 30 23 26 29 28 23 22 18 18 17 14 12 12 12 11 10 6 4 3 2 6 8 7 7 7 8 7 8 9
36 26 21 23 29 29 27 26 26 26 24 23 22 20 17 14 13 13 13 11 10 10 9 11 11 10 9 6 5 6 6 6 7
30 28 21 14 20 28 34 26 25 27 27 24 24 23 21 19 17 15 14 11 10 10 9 10 12 13 10 8 7 8 8 7 7
17 17 16 13 11 21 31 28 29 23 29 26 26 24 22 23 19 19 18 16 14 13 12 10 11 11 10 10 10 11 10 10 9
25 17 15 11 11 14 14 26 35 32 25 28 29 25 28 25 24 22 20 19 18 18 16 14 13 13 14 14 12 14 13 13 12
25 32 18 15 15 14 11 9 26 30 27 29 28 27 29 26 26 25 22 22 20 20 19 18 19 18 17 16 18 17 17 14 16
23 10 17 15 16 18 17 13 13 20 21 11 17 29 32 29 23 25 25 18 17 16 21 22 22 23 23 22 21 18 18 16 19
29 26 27 29 25 23 21 21 20 22 22 24 24 15 29 24 25 25 22 22 20 15 14 22 24 25 26 27 27 23 21 20 19
30 35 34 36 31 26 24 23 24 25 29 29 29 24 20 29 25 27 26 27 22 21 21 19 26 25 28 29 29 29 27 27 26
37 28 4 21 20 23 25 25 25 26 28 29 27 22 19 27 38 33 31 28 28 27 22 24 29 34 34 27 26 29 30 30 31
36 38 27 24 7 17 26 25 24 25 29 28 26 22 25 27 38 24 23 27 29 25 25 25 24 25 27 24 26 26 27 31 29
29 9 20 14 13 20 27 26 30 36 34 30 23 32 27 33 34 24 25 25 19 24 22 23 24 24 28 29 28 30 32 30 37
30 28 23 21 19 26 32 31 35 46 29 16 31 28 22 26 23 27 27 27 24 22 22 22 22 24 27 27 29 29 25 27 26
44 41 41 41 37 32 35 37 40 39 39 33 31 35 23 16 25 23 25 19 19 22 22 25 25 28 27 26 25 25 24 25 29
47 46 44 41 41 45 42 33 35 37 32 29 28 23 21 22 26 34 27 25 19 24 26 25 27 28 29 30 28 28 28 26 28
53 54 57 53 50 46 48 47 41 41 42 41 40 40 37 34 32 31 26 27 27 31 33 32 30 29 29 31 32 32 32 31 32
47 44 39 44 50 51 51 51 52 49 48 44 45 45 44 43 39 39 37 36 37 37 38 39 39 39 38 39 39 38 38 38 36
41 44 37 34 31 47 48 50 51 54 53 53 47 47 47 48 48 48 48 48 47 45 46 47 47 48 48 48 47 45 44 44 44
23 27 31 37 34 33 41 49 48 50 56 56 54 50 49 49 48 48 52 54 54 54 53 53 53 55 51 50 49 51 49 49 49

GFSFLT1_500_spd_117.txt.gz
Wind_Speed
32 29 30 29 27 23 23 21 18 15 14 13 12 11 11 9 9 9 7 4 5 4 4 4 6 7 6 7 8 8 6 6 5
35 38 37 32 31 26 25 22 20 19 16 14 14 13 12 12 12 10 8 7 5 2 6 6 4 7 6 7 8 9 9 8 7
25 43 35 35 33 29 28 26 24 22 18 18 16 15 13 13 13 14 11 11 10 8 10 10 11 12 10 8 7 8 7 7 7
18 51 34 28 30 29 28 26 27 25 24 23 21 19 18 17 17 15 14 14 15 13 12 11 11 10 11 11 11 10 9 7 7
12 27 25 28 22 27 31 30 29 24 26 26 26 23 22 20 19 20 20 18 17 15 13 12 10 10 14 13 12 11 11 10 10
12 25 26 19 13 18 28 33 35 30 27 25 24 22 23 22 24 24 25 24 21 19 18 16 16 15 16 18 16 16 18 15 14
7 23 22 24 19 17 19 29 34 31 33 28 21 24 24 24 27 28 26 27 26 23 21 21 21 20 18 19 18 19 19 17 19
15 19 30 22 20 20 23 22 26 31 32 29 27 21 26 24 28 30 25 27 29 28 26 24 23 24 22 22 24 22 20 19 19
16 18 24 29 27 23 21 24 18 27 31 29 29 18 19 18 26 34 32 30 33 30 27 28 29 27 25 27 27 28 24 22 23
20 24 28 30 31 25 20 25 27 24 28 25 27 27 24 30 25 34 41 34 33 30 27 26 23 26 26 27 29 32 31 30 29
31 28 36 42 34 33 27 28 31 32 33 33 32 24 33 31 26 29 31 34 32 34 33 30 25 25 30 28 24 27 30 35 33
33 28 31 37 24 13 35 34 33 33 32 29 32 37 37 32 25 31 31 35 32 37 39 40 35 31 30 29 32 26 30 26 26
31 29 33 33 28 5 12 15 36 38 34 36 36 37 35 33 29 31 32 42 38 34 38 36 33 32 31 33 24 27 24 25 28
39 34 24 24 14 18 18 18 20 24 27 29 35 40 35 31 31 38 33 43 35 32 29 34 23 25 27 30 34 35 33 30 30
45 40 35 28 20 18 22 29 25 27 30 32 35 28 26 29 38 34 38 34 30 28 26 27 26 25 24 25 27 25 26 29 29
53 47 45 41 38 32 29 30 35 38 39 39 36 36 35 29 18 18 21 19 16 23 27 22 24 28 28 28 28 29 30 29 29
44 42 37 36 38 40 35 36 40 43 44 44 39 35 37 37 33 31 31 29 27 32 30 28 24 27 30 31 31 32 31 30 31
47 48 45 42 42 42 44 43 43 45 48 48 47 46 43 41 42 39 36 35 33 31 30 29 29 33 36 36 36 36 37 37 37
42 46 48 48 50 46 46 42 34 36 44 47 50 49 48 47 44 43 42 38 39 41 39 39 38 39 40 42 45 47 48 49 47
22 24 28 32 37 41 41 38 39 39 36 40 45 48 48 47 47 46 45 44 44 45 46 48 49 49 49 50 53 54 46 51 55